| time (UTC) | temp F | wind direction | speed MPH | gust MPH | rain 1hr in | rain 24hr in | rain mn in | humidity % | barometer mb |
| 20260506215217 | 41 | 155 | 3.0 | 10.0 | 0.13 | 0.24 | 0.23 | 66 | 1020.6 |
| 20260506215144 | 41 | 147 | 3.0 | 10.0 | 0.12 | 0.23 | 0.23 | 66 | 1020.6 |
| 20260506215018 | 41 | 144 | 3.0 | 7.0 | 0.13 | 0.23 | 0.22 | 67 | 1020.7 |
| 20260506214811 | 40 | 134 | 3.0 | 7.0 | 0.13 | 0.23 | 0.22 | 67 | 1020.7 |
| 20260506214719 | 40 | 132 | 3.0 | 6.0 | 0.12 | 0.22 | 0.22 | 66 | 1020.7 |
| 20260506214534 | 40 | 94 | 3.0 | 6.0 | 0.12 | 0.22 | 0.21 | 67 | 1020.9 |
| 20260506214506 | 40 | 104 | 3.0 | 6.0 | 0.13 | 0.22 | 0.21 | 68 | 1020.9 |
| 20260506214406 | 40 | 115 | 3.0 | 6.0 | 0.13 | 0.22 | 0.21 | 68 | 1020.9 |
| 20260506214304 | 40 | 93 | 3.0 | 6.0 | 0.12 | 0.21 | 0.21 | 67 | 1020.9 |
| 20260506214206 | 40 | 155 | 3.0 | 6.0 | 0.12 | 0.21 | 0.20 | 66 | 1020.9 |
| 20260506214104 | 40 | 92 | 3.0 | 6.0 | 0.12 | 0.21 | 0.20 | 67 | 1020.9 |
| 20260506214034 | 40 | 100 | 3.0 | 6.0 | 0.12 | 0.21 | 0.20 | 67 | 1020.9 |
| 20260506214001 | 40 | 117 | 3.0 | 5.0 | 0.12 | 0.21 | 0.20 | 67 | 1020.9 |
| 20260506213901 | 40 | 101 | 3.0 | 5.0 | 0.12 | 0.21 | 0.20 | 67 | 1020.9 |
| 20260506213759 | 40 | 93 | 3.0 | 5.0 | 0.12 | 0.20 | 0.20 | 67 | 1021.0 |
| 20260506213704 | 40 | 166 | 3.0 | 5.0 | 0.12 | 0.20 | 0.19 | 66 | 1021.0 |
| 20260506213535 | 40 | 154 | 3.0 | 6.0 | 0.12 | 0.20 | 0.19 | 63 | 1020.9 |
| 20260506213451 | 41 | 130 | 3.0 | 6.0 | 0.12 | 0.20 | 0.19 | 63 | 1021.0 |
| 20260506213351 | 41 | 112 | 3.0 | 6.0 | 0.12 | 0.20 | 0.19 | 64 | 1021.0 |
| 20260506213250 | 41 | 106 | 3.0 | 6.0 | 0.11 | 0.19 | 0.19 | 64 | 1020.9 |
| 20260506213151 | 41 | 114 | 3.0 | 6.0 | 0.11 | 0.19 | 0.18 | 65 | 1020.9 |
| 20260506213050 | 41 | 137 | 3.0 | 6.0 | 0.11 | 0.20 | 0.18 | 65 | 1020.9 |
| 20260506213033 | 41 | 136 | 3.0 | 6.0 | 0.11 | 0.20 | 0.18 | 65 | 1020.9 |
| 20260506212946 | 41 | 96 | 2.0 | 6.0 | 0.11 | 0.20 | 0.18 | 65 | 1021.0 |
| 20260506212850 | 41 | 112 | 2.0 | 6.0 | 0.12 | 0.20 | 0.18 | 66 | 1020.9 |
| 20260506212643 | 41 | 174 | 3.0 | 6.0 | 0.11 | 0.19 | 0.17 | 65 | 1021.0 |
| 20260506212533 | 41 | 101 | 3.0 | 6.0 | 0.11 | 0.19 | 0.17 | 66 | 1021.0 |
| 20260506212437 | 41 | 140 | 3.0 | 6.0 | 0.10 | 0.19 | 0.17 | 67 | 1020.9 |
| 20260506212337 | 40 | 147 | 3.0 | 7.0 | 0.10 | 0.19 | 0.16 | 66 | 1021.0 |
| 20260506212242 | 40 | 157 | 3.0 | 7.0 | 0.10 | 0.19 | 0.16 | 66 | 1020.9 |
| 20260506212034 | 40 | 117 | 3.0 | 7.0 | 0.09 | 0.18 | 0.15 | 65 | 1021.0 |
| 20260506211932 | 40 | 117 | 3.0 | 7.0 | 0.09 | 0.18 | 0.15 | 64 | 1021.0 |
| 20260506211829 | 41 | 117 | 3.0 | 7.0 | 0.08 | 0.18 | 0.15 | 64 | 1021.0 |
| 20260506211735 | 41 | 123 | 2.0 | 7.0 | 0.08 | 0.18 | 0.14 | 64 | 1021.0 |
| 20260506211528 | 41 | 142 | 2.0 | 7.0 | 0.08 | 0.18 | 0.14 | 65 | 1021.0 |
| 20260506211426 | 41 | 134 | 2.0 | 7.0 | 0.08 | 0.18 | 0.14 | 65 | 1021.0 |
| 20260506211327 | 41 | 121 | 2.0 | 5.0 | 0.08 | 0.18 | 0.14 | 66 | 1021.0 |
| 20260506211227 | 41 | 163 | 2.0 | 5.0 | 0.08 | 0.18 | 0.14 | 67 | 1021.0 |
| 20260506211134 | 41 | 128 | 2.0 | 5.0 | 0.08 | 0.18 | 0.14 | 67 | 1021.1 |
| 20260506211023 | 40 | 158 | 1.0 | 5.0 | 0.09 | 0.18 | 0.14 | 67 | 1021.1 |
| 20260506210926 | 40 | 150 | 1.0 | 4.0 | 0.09 | 0.18 | 0.14 | 66 | 1021.2 |
| 20260506210720 | 40 | 130 | 2.0 | 4.0 | 0.08 | 0.17 | 0.13 | 66 | 1021.1 |
| 20260506210618 | 40 | 130 | 2.0 | 4.0 | 0.08 | 0.17 | 0.13 | 67 | 1021.1 |
| 20260506210517 | 40 | 192 | 2.0 | 4.0 | 0.08 | 0.17 | 0.13 | 65 | 1021.1 |
| 20260506210418 | 40 | 192 | 2.0 | 4.0 | 0.07 | 0.16 | 0.13 | 65 | 1021.1 |
| 20260506210316 | 40 | 192 | 2.0 | 5.0 | 0.07 | 0.16 | 0.12 | 65 | 1021.2 |
| 20260506210217 | 40 | 185 | 2.0 | 6.0 | 0.07 | 0.16 | 0.12 | 63 | 1021.2 |
| 20260506210117 | 41 | 74 | 2.0 | 6.0 | 0.08 | 0.16 | 0.12 | 63 | 1021.2 |
| 20260506210007 | 41 | 74 | 3.0 | 6.0 | 0.07 | 0.15 | 0.12 | 62 | 1021.2 |
| 20260506205918 | 41 | 74 | 3.0 | 6.0 | 0.07 | 0.15 | 0.11 | 62 | 1021.1 |
| 20260506205816 | 42 | 74 | 3.0 | 6.0 | 0.07 | 0.15 | 0.11 | 61 | 1021.2 |
| 20260506205717 | 42 | 101 | 3.0 | 6.0 | 0.07 | 0.15 | 0.11 | 63 | 1021.2 |
| 20260506205617 | 42 | 146 | 3.0 | 6.0 | 0.07 | 0.15 | 0.11 | 64 | 1021.2 |
| 20260506205609 | 42 | 146 | 3.0 | 6.0 | 0.07 | 0.15 | 0.11 | 65 | 1021.2 |
| 20260506205417 | 42 | 167 | 3.0 | 6.0 | 0.06 | 0.14 | 0.11 | 65 | 1021.3 |
| 20260506205316 | 42 | 167 | 3.0 | 6.0 | 0.06 | 0.14 | 0.10 | 66 | 1021.3 |
| 20260506205221 | 42 | 161 | 2.0 | 6.0 | 0.07 | 0.14 | 0.10 | 65 | 1021.3 |
| 20260506205010 | 41 | 172 | 2.0 | 6.0 | 0.06 | 0.14 | 0.10 | 68 | 1021.3 |
| 20260506204957 | 41 | 180 | 2.0 | 6.0 | 0.06 | 0.14 | 0.10 | 68 | 1021.3 |
| 20260506204910 | 41 | 184 | 2.0 | 6.0 | 0.06 | 0.14 | 0.09 | 67 | 1021.3 |
| 20260506204817 | 41 | 182 | 2.0 | 4.0 | 0.06 | 0.14 | 0.09 | 68 | 1021.3 |
| 20260506204606 | 40 | 184 | 2.0 | 4.0 | 0.06 | 0.14 | 0.09 | 67 | 1021.3 |
| 20260506204518 | 40 | 184 | 2.0 | 4.0 | 0.05 | 0.13 | 0.09 | 68 | 1021.3 |
| 20260506204511 | 40 | 242 | 2.0 | 4.0 | 0.05 | 0.13 | 0.09 | 68 | 1021.3 |
| 20260506204306 | 40 | 242 | 2.0 | 4.0 | 0.06 | 0.13 | 0.08 | 67 | 1021.3 |
| 20260506204208 | 40 | 242 | 2.0 | 4.0 | 0.06 | 0.13 | 0.08 | 68 | 1021.5 |
| 20260506204013 | 40 | 242 | 2.0 | 4.0 | 0.06 | 0.13 | 0.08 | 67 | 1021.5 |
| 20260506204006 | 40 | 242 | 2.0 | 5.0 | 0.06 | 0.13 | 0.08 | 67 | 1021.5 |
| 20260506203800 | 40 | 242 | 2.0 | 5.0 | 0.05 | 0.12 | 0.07 | 66 | 1021.5 |
| 20260506203655 | 40 | 242 | 2.0 | 5.0 | 0.05 | 0.12 | 0.07 | 64 | 1021.6 |
| 20260506203554 | 40 | 242 | 2.0 | 7.0 | 0.05 | 0.12 | 0.07 | 64 | 1021.5 |
| 20260506203505 | 40 | 242 | 2.0 | 7.0 | 0.05 | 0.12 | 0.07 | 63 | 1021.5 |
| 20260506203151 | 41 | 242 | 2.0 | 7.0 | 0.05 | 0.12 | 0.07 | 63 | 1021.6 |
| 20260506203048 | 41 | 242 | 2.0 | 7.0 | 0.05 | 0.12 | 0.07 | 64 | 1021.7 |
| 20260506202950 | 41 | 252 | 2.0 | 7.0 | 0.05 | 0.12 | 0.07 | 65 | 1021.7 |
| 20260506202928 | 41 | 228 | 2.0 | 7.0 | 0.04 | 0.11 | 0.06 | 65 | 1021.7 |
| 20260506202855 | 41 | 228 | 1.0 | 7.0 | 0.04 | 0.11 | 0.06 | 65 | 1021.7 |
| 20260506202646 | 41 | 257 | 1.0 | 7.0 | 0.04 | 0.11 | 0.06 | 66 | 1021.6 |
| 20260506202545 | 41 | 254 | 1.0 | 4.0 | 0.04 | 0.11 | 0.06 | 66 | 1021.7 |
| 20260506202421 | 41 | 306 | 1.0 | 4.0 | 0.04 | 0.11 | 0.06 | 66 | 1021.7 |
| 20260506202345 | 41 | 306 | 2.0 | 4.0 | 0.04 | 0.11 | 0.06 | 67 | 1021.7 |
| 20260506202244 | 41 | 305 | 2.0 | 4.0 | 0.04 | 0.11 | 0.06 | 68 | 1021.7 |
| 20260506202144 | 41 | 306 | 2.0 | 4.0 | 0.04 | 0.11 | 0.06 | 68 | 1021.7 |
| 20260506202045 | 40 | 306 | 2.0 | 4.0 | 0.04 | 0.12 | 0.06 | 67 | 1021.7 |
| 20260506202022 | 40 | 306 | 2.0 | 4.0 | 0.04 | 0.12 | 0.06 | 67 | 1021.7 |
| 20260506201843 | 40 | 306 | 2.0 | 4.0 | 0.04 | 0.12 | 0.06 | 67 | 1021.7 |
| 20260506201743 | 40 | 306 | 2.0 | 5.0 | 0.04 | 0.12 | 0.06 | 67 | 1021.7 |
| 20260506201643 | 40 | 306 | 3.0 | 5.0 | 0.04 | 0.12 | 0.06 | 67 | 1021.7 |
| 20260506201550 | 40 | 305 | 2.0 | 5.0 | 0.04 | 0.12 | 0.06 | 67 | 1021.7 |
| 20260506201409 | 40 | 306 | 2.0 | 5.0 | 0.04 | 0.12 | 0.06 | 67 | 1021.7 |
| 20260506201342 | 40 | 305 | 3.0 | 5.0 | 0.04 | 0.12 | 0.06 | 67 | 1021.7 |
| 20260506201242 | 40 | 306 | 2.0 | 5.0 | 0.04 | 0.12 | 0.06 | 67 | 1021.7 |
| 20260506201140 | 40 | 306 | 2.0 | 5.0 | 0.04 | 0.12 | 0.06 | 67 | 1021.7 |
| 20260506201115 | 40 | 306 | 2.0 | 5.0 | 0.03 | 0.11 | 0.06 | 65 | 1021.7 |
| 20260506200841 | 40 | 306 | 2.0 | 5.0 | 0.03 | 0.11 | 0.05 | 66 | 1021.7 |
| 20260506200741 | 40 | 284 | 2.0 | 4.0 | 0.04 | 0.11 | 0.05 | 68 | 1021.7 |
| 20260506200647 | 41 | 284 | 3.0 | 6.0 | 0.04 | 0.11 | 0.05 | 68 | 1021.7 |
| 20260506200437 | 40 | 284 | 3.0 | 6.0 | 0.04 | 0.11 | 0.05 | 67 | 1021.7 |
| 20260506200335 | 40 | 284 | 3.0 | 6.0 | 0.04 | 0.11 | 0.05 | 67 | 1021.7 |
| 20260506200235 | 40 | 284 | 3.0 | 6.0 | 0.04 | 0.11 | 0.05 | 67 | 1021.8 |
| 20260506200135 | 40 | 284 | 3.0 | 6.0 | 0.03 | 0.10 | 0.05 | 67 | 1021.8 |
| 20260506200034 | 40 | 284 | 3.0 | 6.0 | 0.03 | 0.10 | 0.04 | 67 | 1021.8 |
| 20260506195928 | 40 | 284 | 3.0 | 6.0 | 0.03 | 0.10 | 0.04 | 66 | 1021.7 |
| 20260506195829 | 40 | 284 | 3.0 | 6.0 | 0.03 | 0.10 | 0.04 | 66 | 1021.7 |
| 20260506195729 | 41 | 259 | 2.0 | 6.0 | 0.03 | 0.11 | 0.04 | 65 | 1021.8 |
| 20260506195629 | 41 | 265 | 2.0 | 6.0 | 0.03 | 0.11 | 0.04 | 65 | 1021.7 |
| 20260506195542 | 41 | 261 | 2.0 | 6.0 | 0.03 | 0.11 | 0.04 | 66 | 1021.7 |
| 20260506195536 | 41 | 261 | 2.0 | 6.0 | 0.03 | 0.11 | 0.04 | 66 | 1021.7 |
| 20260506195224 | 42 | 239 | 2.0 | 6.0 | 0.02 | 0.10 | 0.04 | 68 | 1021.7 |
| 20260506195122 | 42 | 259 | 2.0 | 6.0 | 0.02 | 0.10 | 0.03 | 67 | 1021.7 |
| 20260506195022 | 42 | 272 | 2.0 | 5.0 | 0.02 | 0.10 | 0.03 | 67 | 1021.8 |
| 20260506194945 | 42 | 198 | 2.0 | 5.0 | 0.02 | 0.10 | 0.03 | 66 | 1021.7 |
| 20260506194818 | 42 | 198 | 2.0 | 5.0 | 0.02 | 0.10 | 0.03 | 68 | 1021.7 |
| 20260506194718 | 41 | 198 | 2.0 | 5.0 | 0.02 | 0.10 | 0.03 | 69 | 1021.7 |
| 20260506194620 | 41 | 179 | 1.0 | 4.0 | 0.02 | 0.10 | 0.03 | 70 | 1021.8 |
| 20260506194547 | 41 | 205 | 1.0 | 5.0 | 0.02 | 0.10 | 0.03 | 69 | 1021.7 |
| 20260506194313 | 41 | 161 | 1.0 | 5.0 | 0.01 | 0.09 | 0.03 | 70 | 1021.8 |
| 20260506194213 | 41 | 161 | 1.0 | 5.0 | 0.01 | 0.09 | 0.02 | 70 | 1021.8 |
| 20260506194117 | 41 | 161 | 2.0 | 5.0 | 0.01 | 0.09 | 0.02 | 69 | 1021.8 |
| 20260506193922 | 41 | 150 | 2.0 | 5.0 | 0.01 | 0.09 | 0.02 | 69 | 1021.8 |
| 20260506193914 | 41 | 150 | 2.0 | 5.0 | 0.01 | 0.09 | 0.02 | 70 | 1021.8 |
| 20260506193710 | 40 | 150 | 2.0 | 5.0 | 0.01 | 0.09 | 0.02 | 70 | 1021.8 |
| 20260506193606 | 40 | 150 | 2.0 | 5.0 | 0.01 | 0.09 | 0.02 | 70 | 1021.9 |
| 20260506193505 | 40 | 150 | 2.0 | 5.0 | 0.01 | 0.09 | 0.02 | 70 | 1021.9 |
| 20260506193402 | 41 | 150 | 3.0 | 5.0 | 0.01 | 0.09 | 0.02 | 71 | 1021.9 |
| 20260506193320 | 41 | 150 | 3.0 | 6.0 | 0.01 | 0.09 | 0.02 | 73 | 1021.9 |
| 20260506193303 | 41 | 150 | 3.0 | 6.0 | 0.01 | 0.09 | 0.02 | 73 | 1021.9 |
| 20260506193204 | 40 | 150 | 3.0 | 6.0 | 0.01 | 0.09 | 0.02 | 73 | 1021.9 |
| 20260506193102 | 40 | 150 | 3.0 | 6.0 | 0.01 | 0.09 | 0.02 | 75 | 1021.9 |
| 20260506192958 | 40 | 180 | 3.0 | 6.0 | 0.01 | 0.09 | 0.02 | 75 | 1022.0 |
| 20260506192854 | 40 | 180 | 3.0 | 6.0 | 0.01 | 0.09 | 0.02 | 74 | 1021.9 |
| 20260506192815 | 40 | 180 | 3.0 | 6.0 | 0.01 | 0.09 | 0.02 | 73 | 1022.0 |
| 20260506192752 | 40 | 199 | 3.0 | 6.0 | 0.01 | 0.09 | 0.02 | 73 | 1022.0 |
| 20260506192700 | 40 | 153 | 3.0 | 6.0 | 0.01 | 0.09 | 0.02 | 73 | 1022.0 |
| 20260506192452 | 40 | 155 | 3.0 | 7.0 | 0.01 | 0.09 | 0.02 | 76 | 1021.9 |
| 20260506192346 | 40 | 172 | 3.0 | 7.0 | 0.01 | 0.09 | 0.02 | 75 | 1021.9 |
| 20260506192308 | 40 | 172 | 3.0 | 7.0 | 0.01 | 0.09 | 0.02 | 75 | 1021.9 |
| 20260506192246 | 40 | 150 | 3.0 | 7.0 | 0.01 | 0.09 | 0.02 | 75 | 1022.0 |
| 20260506192154 | 40 | 144 | 3.0 | 7.0 | 0.01 | 0.09 | 0.02 | 76 | 1022.0 |
| 20260506191946 | 39 | 163 | 3.0 | 7.0 | 0.01 | 0.09 | 0.02 | 75 | 1022.0 |
| 20260506191909 | 39 | 125 | 3.0 | 7.0 | 0.01 | 0.09 | 0.02 | 75 | 1021.9 |
| 20260506191745 | 39 | 170 | 3.0 | 7.0 | 0.01 | 0.09 | 0.02 | 75 | 1022.0 |
| 20260506191644 | 38 | 111 | 3.0 | 7.0 | 0.01 | 0.09 | 0.02 | 76 | 1022.0 |
| 20260506191543 | 38 | 159 | 3.0 | 7.0 | 0.01 | 0.09 | 0.02 | 75 | 1021.9 |
| 20260506191440 | 38 | 116 | 3.0 | 6.0 | 0.01 | 0.09 | 0.02 | 76 | 1022.0 |
| 20260506191337 | 38 | 113 | 3.0 | 6.0 | 0.01 | 0.09 | 0.02 | 75 | 1022.0 |
| 20260506191255 | 38 | 100 | 3.0 | 6.0 | 0.01 | 0.09 | 0.02 | 75 | 1022.0 |
| 20260506191234 | 38 | 100 | 2.0 | 6.0 | 0.01 | 0.09 | 0.02 | 75 | 1022.0 |
| 20260506191135 | 38 | 79 | 2.0 | 6.0 | 0.01 | 0.09 | 0.02 | 75 | 1022.2 |
| 20260506191036 | 38 | 89 | 2.0 | 6.0 | 0.01 | 0.09 | 0.02 | 75 | 1022.2 |
| 20260506190936 | 38 | 89 | 2.0 | 6.0 | 0.01 | 0.09 | 0.02 | 75 | 1022.2 |
| 20260506190751 | 38 | 89 | 2.0 | 6.0 | 0.00 | 0.08 | 0.01 | 76 | 1022.3 |
| 20260506190729 | 38 | 89 | 1.0 | 6.0 | 0.00 | 0.08 | 0.01 | 76 | 1022.3 |
| 20260506190630 | 38 | 89 | 1.0 | 5.0 | 0.00 | 0.08 | 0.01 | 76 | 1022.3 |
| 20260506190530 | 39 | 89 | 1.0 | 5.0 | 0.00 | 0.08 | 0.01 | 76 | 1022.3 |
| 20260506190428 | 39 | 73 | 1.0 | 5.0 | 0.00 | 0.08 | 0.01 | 83 | 1022.3 |
| 20260506190322 | 39 | 21 | 2.0 | 5.0 | 0.00 | 0.08 | 0.01 | 83 | 1022.3 |
| 20260506190243 | 39 | 21 | 2.0 | 5.0 | 0.00 | 0.08 | 0.01 | 84 | 1022.2 |
| 20260506190222 | 38 | 21 | 2.0 | 5.0 | 0.00 | 0.08 | 0.01 | 84 | 1022.2 |
| 20260506190123 | 38 | 21 | 2.0 | 5.0 | 0.00 | 0.08 | 0.01 | 83 | 1022.3 |
| 20260506190023 | 38 | 21 | 2.0 | 5.0 | 0.00 | 0.08 | 0.01 | 82 | 1022.3 |
| 20260506185952 | 38 | 21 | 2.0 | 5.0 | 0.00 | 0.08 | 0.01 | 82 | 1022.3 |
| 20260506185716 | 38 | 21 | 2.0 | 5.0 | 0.00 | 0.08 | 0.01 | 84 | 1022.4 |
| 20260506185617 | 37 | 341 | 2.0 | 5.0 | 0.00 | 0.08 | 0.01 | 84 | 1022.4 |
| 20260506185528 | 37 | 13 | 2.0 | 5.0 | 0.00 | 0.08 | 0.01 | 84 | 1022.5 |
| 20260506185232 | 37 | 315 | 2.0 | 4.0 | 0.00 | 0.08 | 0.01 | 86 | 1022.4 |
| 20260506185218 | 37 | 346 | 2.0 | 4.0 | 0.00 | 0.08 | 0.01 | 86 | 1022.4 |
| 20260506185011 | 36 | 11 | 2.0 | 5.0 | 0.00 | 0.08 | 0.01 | 86 | 1022.4 |
| 20260506184910 | 36 | 12 | 2.0 | 5.0 | 0.00 | 0.08 | 0.01 | 86 | 1022.5 |
| 20260506184810 | 35 | 11 | 2.0 | 5.0 | 0.00 | 0.08 | 0.01 | 85 | 1022.5 |
| 20260506184725 | 35 | 12 | 3.0 | 5.0 | 0.00 | 0.08 | 0.01 | 85 | 1022.4 |
| 20260506184715 | 35 | 12 | 3.0 | 5.0 | 0.00 | 0.08 | 0.01 | 84 | 1022.4 |
| 20260506184508 | 35 | 53 | 3.0 | 5.0 | 0.01 | 0.08 | 0.01 | 85 | 1022.4 |
| 20260506184422 | 35 | 53 | 2.0 | 5.0 | 0.01 | 0.08 | 0.01 | 85 | 1022.5 |
| 20260506184414 | 35 | 67 | 2.0 | 5.0 | 0.01 | 0.08 | 0.01 | 85 | 1022.5 |
| 20260506184101 | 35 | 50 | 2.0 | 5.0 | 0.01 | 0.08 | 0.01 | 87 | 1022.5 |
| 20260506184000 | 35 | 21 | 2.0 | 5.0 | 0.01 | 0.08 | 0.01 | 87 | 1022.6 |
| 20260506183930 | 35 | 21 | 2.0 | 8.0 | 0.01 | 0.08 | 0.01 | 87 | 1022.6 |
| 20260506183652 | 35 | 28 | 1.0 | 8.0 | 0.01 | 0.08 | 0.01 | 90 | 1022.6 |
| 20260506183553 | 35 | 347 | 1.0 | 8.0 | 0.01 | 0.08 | 0.01 | 90 | 1022.6 |
| 20260506183453 | 35 | 347 | 2.0 | 8.0 | 0.01 | 0.08 | 0.01 | 90 | 1022.6 |
| 20260506183352 | 34 | 347 | 2.0 | 8.0 | 0.01 | 0.08 | 0.01 | 89 | 1022.6 |
| 20260506183258 | 34 | 347 | 2.0 | 8.0 | 0.01 | 0.08 | 0.01 | 89 | 1022.8 |
| 20260506182953 | 34 | 34 | 4.0 | 8.0 | 0.01 | 0.08 | 0.01 | 89 | 1022.8 |
| 20260506182743 | 33 | 336 | 4.0 | 8.0 | 0.01 | 0.08 | 0.01 | 89 | 1022.8 |
| 20260506182702 | 33 | 336 | 4.0 | 8.0 | 0.01 | 0.08 | 0.01 | 89 | 1022.8 |
| 20260506182641 | 33 | 336 | 5.0 | 8.0 | 0.01 | 0.08 | 0.01 | 89 | 1022.8 |
| 20260506182542 | 33 | 332 | 5.0 | 9.0 | 0.01 | 0.08 | 0.01 | 89 | 1022.9 |
| 20260506182440 | 33 | 21 | 5.0 | 9.0 | 0.01 | 0.08 | 0.01 | 89 | 1022.8 |
| 20260506182340 | 33 | 0 | 5.0 | 9.0 | 0.01 | 0.08 | 0.01 | 89 | 1022.8 |
| 20260506182235 | 33 | 18 | 5.0 | 9.0 | 0.01 | 0.08 | 0.01 | 88 | 1022.9 |
| 20260506182156 | 33 | 9 | 4.0 | 9.0 | 0.01 | 0.08 | 0.01 | 88 | 1022.9 |
| 20260506182141 | 33 | 34 | 4.0 | 9.0 | 0.01 | 0.08 | 0.01 | 89 | 1022.8 |
| 20260506181936 | 33 | 22 | 4.0 | 9.0 | 0.01 | 0.08 | 0.01 | 89 | 1022.8 |
| 20260506181847 | 33 | 28 | 5.0 | 9.0 | 0.01 | 0.08 | 0.01 | 90 | 1022.8 |
| 20260506181732 | 32 | 42 | 5.0 | 10.0 | 0.01 | 0.08 | 0.01 | 90 | 1022.9 |
| 20260506181529 | 32 | 5 | 6.0 | 10.0 | 0.01 | 0.08 | 0.01 | 90 | 1022.8 |
| 20260506181429 | 32 | 41 | 6.0 | 10.0 | 0.01 | 0.08 | 0.01 | 90 | 1022.8 |
| 20260506181328 | 32 | 31 | 6.0 | 11.0 | 0.01 | 0.08 | 0.01 | 90 | 1022.8 |
| 20260506181227 | 32 | 15 | 7.0 | 11.0 | 0.01 | 0.08 | 0.01 | 90 | 1022.8 |
| 20260506181143 | 32 | 47 | 7.0 | 11.0 | 0.01 | 0.08 | 0.01 | 90 | 1022.8 |
| 20260506181127 | 32 | 5 | 7.0 | 13.0 | 0.01 | 0.08 | 0.01 | 89 | 1022.8 |
| 20260506181026 | 32 | 32 | 7.0 | 13.0 | 0.01 | 0.08 | 0.01 | 89 | 1022.8 |
| 20260506180925 | 32 | 36 | 7.0 | 13.0 | 0.01 | 0.09 | 0.01 | 89 | 1022.8 |
| 20260506180822 | 32 | 56 | 7.0 | 13.0 | 0.01 | 0.09 | 0.01 | 89 | 1022.8 |
| 20260506180719 | 32 | 46 | 7.0 | 13.0 | 0.01 | 0.09 | 0.01 | 89 | 1022.8 |
| 20260506180638 | 32 | 47 | 7.0 | 13.0 | 0.01 | 0.09 | 0.01 | 89 | 1022.8 |
| 20260506180617 | 32 | 40 | 7.0 | 13.0 | 0.01 | 0.09 | 0.01 | 89 | 1022.8 |
| 20260506180516 | 32 | 35 | 7.0 | 13.0 | 0.01 | 0.09 | 0.01 | 89 | 1022.8 |
| 20260506180417 | 32 | 41 | 6.0 | 13.0 | 0.01 | 0.09 | 0.01 | 90 | 1022.9 |
| 20260506180316 | 32 | 28 | 6.0 | 13.0 | 0.01 | 0.09 | 0.01 | 90 | 1022.8 |
| 20260506180239 | 32 | 44 | 5.0 | 13.0 | 0.01 | 0.09 | 0.01 | 90 | 1022.8 |
| 20260506180111 | 32 | 76 | 5.0 | 10.0 | 0.01 | 0.09 | 0.01 | 90 | 1022.8 |
| 20260506180017 | 32 | 30 | 6.0 | 12.0 | 0.01 | 0.09 | 0.01 | 90 | 1022.8 |
| 20260506175810 | 32 | 35 | 6.0 | 12.0 | 0.01 | 0.09 | 0.01 | 91 | 1022.8 |
| 20260506175707 | 32 | 36 | 7.0 | 12.0 | 0.01 | 0.09 | 0.01 | 90 | 1022.6 |
| 20260506175607 | 32 | 12 | 7.0 | 12.0 | 0.01 | 0.09 | 0.01 | 90 | 1022.6 |
| 20260506175507 | 32 | 43 | 7.0 | 12.0 | 0.01 | 0.09 | 0.01 | 90 | 1022.8 |
| 20260506175407 | 32 | 37 | 7.0 | 12.0 | 0.01 | 0.09 | 0.01 | 90 | 1022.6 |
| 20260506175307 | 32 | 52 | 7.0 | 12.0 | 0.01 | 0.09 | 0.01 | 90 | 1022.6 |
| 20260506175128 | 32 | 41 | 7.0 | 12.0 | 0.01 | 0.09 | 0.01 | 90 | 1022.6 |
| 20260506175105 | 32 | 65 | 7.0 | 12.0 | 0.01 | 0.09 | 0.01 | 90 | 1022.6 |
| 20260506174859 | 32 | 55 | 6.0 | 10.0 | 0.01 | 0.09 | 0.01 | 91 | 1022.6 |
| 20260506174759 | 32 | 42 | 6.0 | 10.0 | 0.01 | 0.09 | 0.01 | 91 | 1022.6 |
| 20260506174710 | 32 | 52 | 6.0 | 10.0 | 0.01 | 0.09 | 0.01 | 91 | 1022.6 |
| 20260506174703 | 32 | 72 | 6.0 | 10.0 | 0.00 | 0.08 | 0.00 | 91 | 1022.6 |
| 20260506174400 | 32 | 42 | 5.0 | 10.0 | 0.00 | 0.08 | 0.00 | 92 | 1022.6 |
| 20260506174147 | 32 | 28 | 6.0 | 12.0 | 0.00 | 0.08 | 0.00 | 92 | 1022.6 |
| 20260506174128 | 32 | 39 | 6.0 | 12.0 | 0.00 | 0.08 | 0.00 | 92 | 1022.6 |
| 20260506174046 | 31 | 46 | 7.0 | 12.0 | 0.00 | 0.08 | 0.00 | 92 | 1022.8 |
| 20260506173946 | 31 | 15 | 7.0 | 12.0 | 0.00 | 0.08 | 0.00 | 92 | 1022.8 |
| 20260506173846 | 31 | 350 | 7.0 | 12.0 | 0.00 | 0.08 | 0.00 | 92 | 1022.6 |
| 20260506173746 | 31 | 15 | 7.0 | 12.0 | 0.00 | 0.08 | 0.00 | 92 | 1022.8 |
| 20260506173640 | 31 | 38 | 7.0 | 12.0 | 0.00 | 0.08 | 0.00 | 92 | 1022.6 |
| 20260506173629 | 31 | 40 | 7.0 | 12.0 | 0.00 | 0.08 | 0.00 | 92 | 1022.6 |
| 20260506173540 | 31 | 5 | 7.0 | 12.0 | 0.00 | 0.08 | 0.00 | 92 | 1022.6 |
| 20260506173440 | 31 | 59 | 7.0 | 12.0 | 0.00 | 0.08 | 0.00 | 92 | 1022.6 |
| 20260506173347 | 31 | 46 | 7.0 | 12.0 | 0.00 | 0.08 | 0.00 | 92 | 1022.6 |
| 20260506173126 | 31 | 44 | 7.0 | 12.0 | 0.00 | 0.08 | 0.00 | 92 | 1022.6 |
| 20260506173035 | 31 | 26 | 7.0 | 12.0 | 0.00 | 0.08 | 0.00 | 92 | 1022.6 |
| 20260506172934 | 31 | 28 | 8.0 | 12.0 | 0.00 | 0.08 | 0.00 | 92 | 1022.6 |
| 20260506172834 | 31 | 11 | 8.0 | 12.0 | 0.00 | 0.08 | 0.00 | 92 | 1022.6 |
| 20260506172734 | 31 | 32 | 8.0 | 12.0 | 0.00 | 0.08 | 0.00 | 92 | 1022.6 |
| 20260506172631 | 31 | 28 | 8.0 | 12.0 | 0.00 | 0.08 | 0.00 | 92 | 1022.6 |
| 20260506172624 | 31 | 18 | 8.0 | 12.0 | 0.00 | 0.08 | 0.00 | 92 | 1022.6 |
| 20260506172528 | 31 | 19 | 8.0 | 12.0 | 0.00 | 0.08 | 0.00 | 92 | 1022.8 |
| 20260506172436 | 31 | 15 | 8.0 | 12.0 | 0.00 | 0.08 | 0.00 | 91 | 1022.6 |
| 20260506172228 | 31 | 27 | 8.0 | 12.0 | 0.00 | 0.09 | 0.00 | 91 | 1022.5 |
| 20260506172141 | 31 | 28 | 8.0 | 12.0 | 0.00 | 0.09 | 0.00 | 91 | 1022.5 |
| 20260506172137 | 31 | 35 | 8.0 | 12.0 | 0.00 | 0.09 | 0.00 | 91 | 1022.5 |
| 20260506171828 | 31 | 350 | 8.0 | 12.0 | 0.00 | 0.09 | 0.00 | 91 | 1022.5 |
| 20260506171624 | 31 | 21 | 7.0 | 11.0 | 0.00 | 0.09 | 0.00 | 92 | 1022.5 |
| 20260506171617 | 31 | 9 | 7.0 | 11.0 | 0.00 | 0.09 | 0.00 | 92 | 1022.5 |
| 20260506171517 | 32 | 47 | 7.0 | 11.0 | 0.00 | 0.09 | 0.00 | 92 | 1022.5 |
| 20260506171417 | 32 | 49 | 7.0 | 12.0 | 0.00 | 0.09 | 0.00 | 92 | 1022.6 |
| 20260506171318 | 32 | 58 | 7.0 | 12.0 | 0.00 | 0.09 | 0.00 | 92 | 1022.5 |
| 20260506171217 | 32 | 29 | 7.0 | 12.0 | 0.00 | 0.09 | 0.00 | 92 | 1022.5 |
| 20260506171124 | 32 | 350 | 7.0 | 12.0 | 0.00 | 0.09 | 0.00 | 93 | 1022.5 |
| 20260506171111 | 32 | 315 | 7.0 | 12.0 | 0.00 | 0.09 | 0.00 | 93 | 1022.5 |
| 20260506171011 | 32 | 0 | 7.0 | 12.0 | 0.00 | 0.09 | 0.00 | 93 | 1022.4 |
| 20260506170910 | 32 | 355 | 6.0 | 12.0 | 0.00 | 0.09 | 0.00 | 93 | 1022.4 |
| 20260506170812 | 32 | 5 | 6.0 | 12.0 | 0.00 | 0.09 | 0.00 | 93 | 1022.4 |
| 20260506170732 | 32 | 5 | 6.0 | 12.0 | 0.00 | 0.09 | 0.00 | 93 | 1022.4 |
| 20260506170606 | 32 | 10 | 7.0 | 14.0 | 0.00 | 0.09 | 0.00 | 93 | 1022.4 |
| 20260506170506 | 32 | 17 | 6.0 | 14.0 | 0.00 | 0.09 | 0.00 | 93 | 1022.4 |
| 20260506170404 | 31 | 0 | 6.0 | 14.0 | 0.00 | 0.09 | 0.00 | 93 | 1022.4 |
| 20260506170304 | 31 | 330 | 5.0 | 14.0 | 0.00 | 0.09 | 0.00 | 92 | 1022.4 |
| 20260506170231 | 31 | 355 | 5.0 | 14.0 | 0.00 | 0.09 | 0.00 | 92 | 1022.3 |
| 20260506170002 | 31 | 333 | 6.0 | 14.0 | 0.00 | 0.09 | 0.00 | 92 | 1022.2 |
| 20260506165902 | 31 | 311 | 6.0 | 14.0 | 0.00 | 0.09 | 0.00 | 92 | 1022.2 |
| 20260506165800 | 31 | 305 | 6.0 | 14.0 | 0.00 | 0.09 | 0.00 | 92 | 1022.3 |
| 20260506165658 | 31 | 355 | 6.0 | 14.0 | 0.00 | 0.09 | 0.00 | 92 | 1022.2 |
| 20260506165624 | 31 | 355 | 6.0 | 13.0 | 0.00 | 0.09 | 0.00 | 92 | 1022.2 |
| 20260506165552 | 31 | 331 | 7.0 | 13.0 | 0.00 | 0.09 | 0.00 | 92 | 1022.2 |
| 20260506165454 | 32 | 317 | 7.0 | 13.0 | 0.00 | 0.09 | 0.00 | 92 | 1022.2 |
| 20260506165353 | 32 | 315 | 7.0 | 14.0 | 0.00 | 0.09 | 0.00 | 92 | 1022.2 |
| 20260506165253 | 32 | 322 | 7.0 | 14.0 | 0.00 | 0.09 | 0.00 | 92 | 1022.2 |
| 20260506165152 | 32 | 333 | 7.0 | 14.0 | 0.00 | 0.09 | 0.00 | 92 | 1022.0 |
| 20260506165125 | 32 | 345 | 7.0 | 14.0 | 0.00 | 0.09 | 0.00 | 92 | 1022.0 |
| 20260506165051 | 32 | 344 | 7.0 | 14.0 | 0.00 | 0.09 | 0.00 | 92 | 1022.0 |
| 20260506164950 | 32 | 318 | 8.0 | 14.0 | 0.00 | 0.09 | 0.00 | 92 | 1022.0 |
| 20260506164850 | 32 | 348 | 7.0 | 14.0 | 0.00 | 0.09 | 0.00 | 92 | 1022.0 |
| 20260506164751 | 32 | 297 | 7.0 | 14.0 | 0.00 | 0.09 | 0.00 | 93 | 1022.0 |
| 20260506164732 | 32 | 355 | 7.0 | 14.0 | 0.00 | 0.09 | 0.00 | 93 | 1022.2 |
| 20260506164550 | 32 | 302 | 6.0 | 14.0 | 0.00 | 0.09 | 0.00 | 93 | 1022.0 |
| 20260506164450 | 32 | 355 | 6.0 | 14.0 | 0.00 | 0.09 | 0.00 | 92 | 1022.0 |
| 20260506164352 | 32 | 333 | 6.0 | 15.0 | 0.00 | 0.09 | 0.00 | 92 | 1022.0 |
| 20260506164250 | 32 | 355 | 6.0 | 15.0 | 0.00 | 0.09 | 0.00 | 92 | 1021.9 |
| 20260506164232 | 32 | 302 | 6.0 | 15.0 | 0.00 | 0.09 | 0.00 | 93 | 1021.9 |
| 20260506164050 | 32 | 325 | 6.0 | 15.0 | 0.00 | 0.09 | 0.00 | 93 | 1021.9 |
| 20260506163950 | 32 | 324 | 5.0 | 15.0 | 0.00 | 0.09 | 0.00 | 93 | 1021.8 |
| 20260506163850 | 32 | 330 | 5.0 | 15.0 | 0.00 | 0.09 | 0.00 | 93 | 1021.8 |
| 20260506163750 | 32 | 343 | 5.0 | 15.0 | 0.00 | 0.09 | 0.00 | 93 | 1021.8 |
| 20260506163651 | 32 | 329 | 5.0 | 15.0 | 0.00 | 0.09 | 0.00 | 93 | 1021.8 |
| 20260506163624 | 32 | 355 | 6.0 | 15.0 | 0.00 | 0.09 | 0.00 | 93 | 1021.8 |
| 20260506163552 | 32 | 344 | 6.0 | 15.0 | 0.00 | 0.09 | 0.00 | 93 | 1021.8 |
| 20260506163450 | 32 | 331 | 5.0 | 15.0 | 0.00 | 0.09 | 0.00 | 93 | 1021.8 |
| 20260506163345 | 32 | 32 | 6.0 | 13.0 | 0.00 | 0.09 | 0.00 | 93 | 1021.8 |
| 20260506163251 | 32 | 338 | 5.0 | 13.0 | 0.00 | 0.09 | 0.00 | 93 | 1021.8 |
| 20260506163124 | 32 | 5 | 4.0 | 13.0 | 0.00 | 0.09 | 0.00 | 93 | 1021.7 |
| 20260506163045 | 32 | 355 | 4.0 | 13.0 | 0.00 | 0.09 | 0.00 | 93 | 1021.7 |
| 20260506162945 | 32 | 0 | 3.0 | 13.0 | 0.00 | 0.09 | 0.00 | 93 | 1021.7 |
| 20260506162848 | 32 | 343 | 3.0 | 13.0 | 0.00 | 0.09 | 0.00 | 93 | 1021.7 |
| 20260506162641 | 32 | 329 | 2.0 | 13.0 | 0.00 | 0.09 | 0.00 | 93 | 1021.7 |
| 20260506162619 | 32 | 342 | 2.0 | 13.0 | 0.00 | 0.09 | 0.00 | 93 | 1021.7 |
| 20260506162541 | 32 | 338 | 1.0 | 9.0 | 0.00 | 0.09 | 0.00 | 93 | 1021.7 |
| 20260506162439 | 32 | 336 | 1.0 | 9.0 | 0.00 | 0.09 | 0.00 | 93 | 1021.6 |
| 20260506162432 | 32 | 343 | 0.0 | 6.0 | 0.00 | 0.09 | 0.00 | 93 | 1021.6 |
| 20260506162032 | 32 | 340 | 0.0 | 0.0 | 0.00 | 0.09 | 0.00 | 93 | 1021.5 |
| 20260506161933 | 32 | 304 | 0.0 | 0.0 | 0.00 | 0.09 | 0.00 | 93 | 1021.5 |
| 20260506161833 | 32 | 355 | 0.0 | 0.0 | 0.00 | 0.09 | 0.00 | 93 | 1021.5 |
| 20260506161626 | 32 | 280 | 0.0 | 0.0 | 0.00 | 0.09 | 0.00 | 93 | 1021.5 |
| 20260506161607 | 32 | 313 | 0.0 | 0.0 | 0.00 | 0.09 | 0.00 | 93 | 1021.5 |
| 20260506161526 | 32 | 338 | 0.0 | 0.0 | 0.00 | 0.09 | 0.00 | 93 | 1021.3 |
| 20260506161427 | 32 | 5 | 0.0 | 0.0 | 0.00 | 0.09 | 0.00 | 93 | 1021.2 |
| 20260506161322 | 32 | 15 | 0.0 | 0.0 | 0.00 | 0.09 | 0.00 | 93 | 1021.1 |
| 20260506161240 | 32 | 303 | 0.0 | 0.0 | 0.00 | 0.09 | 0.00 | 93 | 1021.1 |
| 20260506161126 | 32 | 322 | 0.0 | 0.0 | 0.00 | 0.09 | 0.00 | 93 | 1021.2 |
| 20260506160920 | 32 | 5 | 0.0 | 0.0 | 0.00 | 0.09 | 0.00 | 93 | 1021.2 |
| 20260506160816 | 32 | 0 | 0.0 | 0.0 | 0.00 | 0.09 | 0.00 | 93 | 1021.2 |
| 20260506160714 | 32 | 355 | 0.0 | 0.0 | 0.00 | 0.09 | 0.00 | 93 | 1021.3 |
| 20260506160615 | 32 | 317 | 0.0 | 0.0 | 0.00 | 0.09 | 0.00 | 93 | 1021.3 |
| 20260506160554 | 32 | 306 | 0.0 | 0.0 | 0.00 | 0.09 | 0.00 | 93 | 1021.3 |
| 20260506160515 | 32 | 311 | 0.0 | 0.0 | 0.00 | 0.09 | 0.00 | 93 | 1021.3 |
| 20260506160414 | 32 | 326 | 0.0 | 0.0 | 0.00 | 0.09 | 0.00 | 93 | 1021.3 |
| 20260506160309 | 32 | 320 | 0.0 | 0.0 | 0.00 | 0.09 | 0.00 | 94 | 1021.3 |
| 20260506160208 | 32 | 346 | 0.0 | 0.0 | 0.00 | 0.09 | 0.00 | 94 | 1021.5 |
| 20260506160108 | 32 | 14 | 0.0 | 0.0 | 0.00 | 0.09 | 0.00 | 94 | 1021.3 |
| 20260506160048 | 32 | 350 | 0.0 | 0.0 | 0.00 | 0.09 | 0.00 | 94 | 1021.3 |
| 20260506160008 | 32 | 321 | 0.0 | 0.0 | 0.00 | 0.09 | 0.00 | 94 | 1021.3 |
| 20260506155908 | 32 | 5 | 0.0 | 0.0 | 0.00 | 0.09 | 0.00 | 94 | 1021.3 |
| 20260506155812 | 32 | 52 | 0.0 | 0.0 | 0.00 | 0.09 | 0.00 | 94 | 1021.2 |
| 20260506155649 | 32 | 340 | 0.0 | 0.0 | 0.00 | 0.09 | 0.00 | 94 | 1021.2 |
| 20260506155505 | 32 | 22 | 0.0 | 0.0 | 0.00 | 0.09 | 0.00 | 94 | 1021.1 |
| 20260506155402 | 32 | 355 | 0.0 | 0.0 | 0.00 | 0.09 | 0.00 | 94 | 1021.1 |
| 20260506155258 | 32 | 311 | 0.0 | 0.0 | 0.00 | 0.09 | 0.00 | 94 | 1021.1 |
| 20260506155158 | 32 | 347 | 0.0 | 0.0 | 0.00 | 0.09 | 0.00 | 94 | 1021.1 |
| 20260506155143 | 32 | 345 | 0.0 | 0.0 | 0.00 | 0.09 | 0.00 | 94 | 1021.1 |
| 20260506155005 | 32 | 28 | 0.0 | 0.0 | 0.00 | 0.09 | 0.00 | 94 | 1021.1 |
| 20260506154757 | 32 | 342 | 0.0 | 0.0 | 0.00 | 0.09 | 0.00 | 94 | 1021.1 |
| 20260506154552 | 32 | 17 | 0.0 | 0.0 | 0.00 | 0.09 | 0.00 | 94 | 1021.1 |
| 20260506154530 | 32 | 355 | 0.0 | 0.0 | 0.00 | 0.09 | 0.00 | 94 | 1021.1 |
| 20260506154452 | 32 | 340 | 0.0 | 0.0 | 0.00 | 0.09 | 0.00 | 94 | 1021.1 |
| 20260506154350 | 32 | 355 | 0.0 | 0.0 | 0.00 | 0.09 | 0.00 | 94 | 1021.2 |
| 20260506154245 | 32 | 344 | 0.0 | 0.0 | 0.00 | 0.09 | 0.00 | 94 | 1021.2 |
| 20260506154145 | 32 | 329 | 0.0 | 0.0 | 0.00 | 0.09 | 0.00 | 94 | 1021.2 |
| 20260506154130 | 32 | 355 | 0.0 | 0.0 | 0.00 | 0.09 | 0.00 | 94 | 1021.3 |
| 20260506153944 | 32 | 5 | 0.0 | 0.0 | 0.00 | 0.09 | 0.00 | 94 | 1021.2 |
| 20260506153844 | 31 | 316 | 0.0 | 0.0 | 0.00 | 0.09 | 0.00 | 94 | 1021.3 |
| 20260506153738 | 31 | 337 | 0.0 | 0.0 | 0.00 | 0.09 | 0.00 | 94 | 1021.3 |
| 20260506153639 | 31 | 25 | 0.0 | 0.0 | 0.00 | 0.09 | 0.00 | 94 | 1021.3 |
| 20260506153549 | 31 | 314 | 0.0 | 0.0 | 0.00 | 0.09 | 0.00 | 94 | 1021.3 |
| 20260506153543 | 31 | 0 | 0.0 | 0.0 | 0.00 | 0.09 | 0.00 | 94 | 1021.3 |
| 20260506153339 | 31 | 347 | 0.0 | 0.0 | 0.00 | 0.09 | 0.00 | 94 | 1021.2 |
| 20260506153239 | 31 | 325 | 0.0 | 0.0 | 0.00 | 0.10 | 0.00 | 94 | 1021.1 |
| 20260506153145 | 31 | 325 | 0.0 | 0.0 | 0.00 | 0.10 | 0.00 | 94 | 1021.1 |
| 20260506153012 | 31 | 325 | 0.0 | 0.0 | 0.00 | 0.10 | 0.00 | 94 | 1021.1 |
| 20260506152934 | 31 | 325 | 0.0 | 0.0 | 0.00 | 0.10 | 0.00 | 94 | 1021.1 |
| 20260506152832 | 31 | 325 | 0.0 | 0.0 | 0.00 | 0.10 | 0.00 | 94 | 1021.1 |
| 20260506152732 | 31 | 325 | 0.0 | 0.0 | 0.00 | 0.10 | 0.00 | 94 | 1021.1 |
| 20260506152630 | 31 | 325 | 0.0 | 0.0 | 0.00 | 0.10 | 0.00 | 94 | 1021.0 |
| 20260506152506 | 31 | 325 | 0.0 | 0.0 | 0.00 | 0.10 | 0.00 | 93 | 1021.1 |
| 20260506152429 | 31 | 325 | 0.0 | 0.0 | 0.00 | 0.10 | 0.00 | 93 | 1021.0 |
| 20260506152327 | 31 | 325 | 0.0 | 0.0 | 0.00 | 0.10 | 0.00 | 93 | 1021.0 |
| 20260506152226 | 31 | 325 | 0.0 | 0.0 | 0.00 | 0.10 | 0.00 | 94 | 1020.9 |
| 20260506152214 | 32 | 325 | 0.0 | 0.0 | 0.00 | 0.10 | 0.00 | 94 | 1021.0 |
| 20260506151922 | 32 | 325 | 0.0 | 0.0 | 0.00 | 0.10 | 0.00 | 94 | 1021.0 |
| 20260506151820 | 32 | 325 | 0.0 | 0.0 | 0.00 | 0.10 | 0.00 | 94 | 1020.9 |
| 20260506151726 | 32 | 325 | 0.0 | 0.0 | 0.00 | 0.10 | 0.00 | 94 | 1020.9 |
| 20260506151600 | 31 | 325 | 0.0 | 0.0 | 0.00 | 0.10 | 0.00 | 94 | 1021.0 |
| 20260506151416 | 31 | 325 | 0.0 | 0.0 | 0.00 | 0.10 | 0.00 | 94 | 1021.0 |
| 20260506151316 | 31 | 325 | 0.0 | 0.0 | 0.00 | 0.10 | 0.00 | 94 | 1021.0 |
| 20260506151215 | 31 | 325 | 0.0 | 0.0 | 0.00 | 0.10 | 0.00 | 94 | 1021.0 |
| 20260506151113 | 31 | 325 | 0.0 | 0.0 | 0.00 | 0.10 | 0.00 | 94 | 1020.9 |
| 20260506151055 | 31 | 325 | 0.0 | 0.0 | 0.00 | 0.10 | 0.00 | 94 | 1020.9 |
| 20260506150916 | 31 | 325 | 0.0 | 0.0 | 0.00 | 0.10 | 0.00 | 94 | 1020.9 |
| 20260506150704 | 31 | 325 | 0.0 | 0.0 | 0.00 | 0.10 | 0.00 | 94 | 1020.9 |
| 20260506150621 | 31 | 325 | 0.0 | 0.0 | 0.00 | 0.10 | 0.00 | 94 | 1020.9 |
| 20260506150614 | 31 | 325 | 0.0 | 0.0 | 0.00 | 0.10 | 0.00 | 94 | 1021.0 |
| 20260506150304 | 31 | 325 | 0.0 | 0.0 | 0.00 | 0.10 | 0.00 | 94 | 1020.9 |
| 20260506150202 | 31 | 325 | 0.0 | 0.0 | 0.00 | 0.10 | 0.00 | 94 | 1020.9 |
| 20260506150100 | 31 | 325 | 0.0 | 0.0 | 0.00 | 0.10 | 0.00 | 94 | 1020.9 |
| 20260506150000 | 31 | 325 | 0.0 | 0.0 | 0.00 | 0.10 | 0.00 | 94 | 1020.7 |
| 20260506145936 | 31 | 325 | 0.0 | 0.0 | 0.00 | 0.10 | 0.00 | 94 | 1020.9 |
| 20260506145858 | 31 | 325 | 0.0 | 0.0 | 0.00 | 0.10 | 0.00 | 94 | 1020.9 |
| 20260506145756 | 31 | 325 | 0.0 | 0.0 | 0.00 | 0.10 | 0.00 | 94 | 1020.9 |
| 20260506145652 | 31 | 325 | 0.0 | 0.0 | 0.00 | 0.10 | 0.00 | 94 | 1020.9 |
| 20260506145552 | 31 | 325 | 0.0 | 0.0 | 0.00 | 0.10 | 0.00 | 94 | 1020.9 |
| 20260506145452 | 31 | 325 | 0.0 | 0.0 | 0.00 | 0.10 | 0.00 | 94 | 1020.9 |
| 20260506145430 | 31 | 325 | 0.0 | 0.0 | 0.00 | 0.10 | 0.00 | 94 | 1020.7 |
| 20260506145352 | 31 | 325 | 0.0 | 0.0 | 0.00 | 0.10 | 0.00 | 94 | 1020.7 |
| 20260506145251 | 31 | 325 | 0.0 | 0.0 | 0.00 | 0.10 | 0.00 | 94 | 1020.7 |
| 20260506145148 | 31 | 325 | 0.0 | 0.0 | 0.00 | 0.10 | 0.00 | 94 | 1020.7 |
| 20260506145049 | 31 | 325 | 0.0 | 0.0 | 0.00 | 0.10 | 0.00 | 94 | 1020.7 |
| 20260506144924 | 31 | 325 | 0.0 | 0.0 | 0.00 | 0.10 | 0.00 | 94 | 1020.9 |
| 20260506144847 | 31 | 325 | 0.0 | 0.0 | 0.00 | 0.10 | 0.00 | 94 | 1020.9 |
| 20260506144747 | 31 | 325 | 0.0 | 0.0 | 0.00 | 0.10 | 0.00 | 94 | 1020.7 |
| 20260506144657 | 31 | 325 | 0.0 | 0.0 | 0.00 | 0.10 | 0.00 | 94 | 1020.9 |
| 20260506144418 | 31 | 325 | 0.0 | 0.0 | 0.00 | 0.10 | 0.00 | 94 | 1020.9 |
| 20260506144344 | 31 | 325 | 0.0 | 0.0 | 0.00 | 0.11 | 0.00 | 94 | 1020.7 |
| 20260506144244 | 31 | 325 | 0.0 | 0.0 | 0.00 | 0.11 | 0.00 | 94 | 1020.9 |
| 20260506144142 | 31 | 325 | 0.0 | 0.0 | 0.00 | 0.11 | 0.00 | 94 | 1020.9 |
| 20260506144040 | 31 | 325 | 0.0 | 0.0 | 0.00 | 0.11 | 0.00 | 94 | 1020.9 |
| 20260506143942 | 31 | 325 | 0.0 | 0.0 | 0.00 | 0.11 | 0.00 | 94 | 1020.7 |
| 20260506143738 | 31 | 325 | 0.0 | 0.0 | 0.00 | 0.11 | 0.00 | 94 | 1020.9 |
| 20260506143638 | 31 | 325 | 0.0 | 0.0 | 0.00 | 0.11 | 0.00 | 94 | 1020.9 |
| 20260506143538 | 31 | 325 | 0.0 | 0.0 | 0.00 | 0.11 | 0.00 | 94 | 1020.9 |
| 20260506143436 | 31 | 325 | 0.0 | 0.0 | 0.00 | 0.11 | 0.00 | 94 | 1020.9 |
| 20260506143407 | 31 | 325 | 0.0 | 0.0 | 0.00 | 0.11 | 0.00 | 95 | 1020.9 |
| 20260506143336 | 31 | 325 | 0.0 | 0.0 | 0.00 | 0.11 | 0.00 | 95 | 1020.9 |
| 20260506143243 | 31 | 325 | 0.0 | 0.0 | 0.00 | 0.11 | 0.00 | 95 | 1020.9 |
| 20260506143034 | 31 | 325 | 0.0 | 0.0 | 0.00 | 0.11 | 0.00 | 95 | 1020.9 |
| 20260506142940 | 31 | 325 | 0.0 | 0.0 | 0.00 | 0.11 | 0.00 | 95 | 1020.9 |
| 20260506142735 | 31 | 325 | 0.0 | 0.0 | 0.00 | 0.11 | 0.00 | 95 | 1020.7 |
| 20260506142634 | 31 | 325 | 0.0 | 0.0 | 0.00 | 0.11 | 0.00 | 95 | 1020.9 |
| 20260506142533 | 31 | 325 | 0.0 | 0.0 | 0.00 | 0.11 | 0.00 | 95 | 1020.9 |
| 20260506142402 | 31 | 325 | 0.0 | 0.0 | 0.00 | 0.11 | 0.00 | 95 | 1020.7 |
| 20260506142326 | 31 | 325 | 0.0 | 0.0 | 0.00 | 0.11 | 0.00 | 95 | 1020.7 |
| 20260506142226 | 31 | 325 | 0.0 | 0.0 | 0.00 | 0.11 | 0.00 | 95 | 1020.6 |
| 20260506142126 | 31 | 325 | 0.0 | 0.0 | 0.00 | 0.11 | 0.00 | 95 | 1020.6 |
| 20260506142025 | 31 | 325 | 0.0 | 0.0 | 0.00 | 0.11 | 0.00 | 95 | 1020.6 |
| 20260506141902 | 31 | 325 | 0.0 | 0.0 | 0.00 | 0.11 | 0.00 | 95 | 1020.6 |
| 20260506141834 | 31 | 325 | 0.0 | 0.0 | 0.00 | 0.11 | 0.00 | 95 | 1020.6 |
| 20260506141520 | 31 | 325 | 0.0 | 0.0 | 0.00 | 0.11 | 0.00 | 95 | 1020.6 |
| 20260506141420 | 31 | 325 | 0.0 | 0.0 | 0.00 | 0.11 | 0.00 | 95 | 1020.6 |
| 20260506141401 | 30 | 325 | 0.0 | 0.0 | 0.00 | 0.11 | 0.00 | 95 | 1020.6 |
| 20260506141321 | 30 | 325 | 0.0 | 0.0 | 0.00 | 0.11 | 0.00 | 95 | 1020.6 |
| 20260506141220 | 30 | 325 | 0.0 | 0.0 | 0.00 | 0.11 | 0.00 | 94 | 1020.6 |
| 20260506141121 | 30 | 325 | 0.0 | 0.0 | 0.00 | 0.11 | 0.00 | 94 | 1020.6 |
| 20260506141028 | 30 | 325 | 0.0 | 0.0 | 0.00 | 0.11 | 0.00 | 95 | 1020.6 |
| 20260506140903 | 31 | 325 | 0.0 | 0.0 | 0.00 | 0.11 | 0.00 | 95 | 1020.6 |
| 20260506140822 | 30 | 325 | 0.0 | 0.0 | 0.00 | 0.11 | 0.00 | 95 | 1020.6 |
| 20260506140720 | 30 | 325 | 0.0 | 0.0 | 0.00 | 0.11 | 0.00 | 94 | 1020.6 |
| 20260506140627 | 30 | 325 | 0.0 | 0.0 | 0.00 | 0.11 | 0.00 | 95 | 1020.6 |
| 20260506140402 | 30 | 325 | 0.0 | 0.0 | 0.00 | 0.11 | 0.00 | 94 | 1020.6 |
| 20260506140325 | 30 | 325 | 0.0 | 0.0 | 0.00 | 0.11 | 0.00 | 94 | 1020.5 |
| 20260506140116 | 31 | 325 | 0.0 | 0.0 | 0.00 | 0.12 | 0.00 | 94 | 1020.6 |
| 20260506140022 | 31 | 325 | 0.0 | 0.0 | 0.00 | 0.12 | 0.00 | 94 | 1020.5 |
| 20260506135901 | 31 | 325 | 0.0 | 0.0 | 0.00 | 0.12 | 0.00 | 94 | 1020.5 |
| 20260506135816 | 31 | 325 | 0.0 | 0.0 | 0.00 | 0.12 | 0.00 | 94 | 1020.6 |
| 20260506135716 | 31 | 325 | 0.0 | 0.0 | 0.00 | 0.12 | 0.00 | 94 | 1020.5 |
| 20260506135614 | 31 | 325 | 0.0 | 0.0 | 0.00 | 0.12 | 0.00 | 94 | 1020.5 |
| 20260506135518 | 31 | 325 | 0.0 | 0.0 | 0.00 | 0.12 | 0.00 | 94 | 1020.5 |
| 20260506135400 | 31 | 325 | 0.0 | 0.0 | 0.00 | 0.12 | 0.00 | 95 | 1020.5 |
| 20260506135311 | 31 | 325 | 0.0 | 0.0 | 0.00 | 0.12 | 0.00 | 95 | 1020.5 |
| 20260506135226 | 31 | 325 | 0.0 | 0.0 | 0.00 | 0.12 | 0.00 | 95 | 1020.6 |
| 20260506134911 | 31 | 325 | 0.0 | 0.0 | 0.00 | 0.12 | 0.00 | 95 | 1020.5 |
| 20260506134857 | 31 | 325 | 0.0 | 0.0 | 0.00 | 0.12 | 0.00 | 95 | 1020.5 |
| 20260506134810 | 31 | 325 | 0.0 | 0.0 | 0.00 | 0.12 | 0.00 | 95 | 1020.5 |
| 20260506134710 | 31 | 325 | 0.0 | 0.0 | 0.00 | 0.12 | 0.00 | 95 | 1020.5 |
| 20260506134610 | 31 | 325 | 0.0 | 0.0 | 0.00 | 0.12 | 0.00 | 95 | 1020.5 |
| 20260506134508 | 31 | 325 | 0.0 | 0.0 | 0.00 | 0.12 | 0.00 | 95 | 1020.5 |
| 20260506134409 | 31 | 325 | 0.0 | 0.0 | 0.00 | 0.12 | 0.00 | 95 | 1020.5 |
| 20260506134357 | 31 | 325 | 0.0 | 0.0 | 0.00 | 0.12 | 0.00 | 95 | 1020.5 |
| 20260506134314 | 31 | 325 | 0.0 | 0.0 | 0.00 | 0.12 | 0.00 | 95 | 1020.5 |
| 20260506134106 | 31 | 325 | 0.0 | 0.0 | 0.00 | 0.12 | 0.00 | 95 | 1020.5 |
| 20260506134005 | 31 | 325 | 0.0 | 0.0 | 0.00 | 0.12 | 0.00 | 95 | 1020.4 |
| 20260506133907 | 31 | 325 | 0.0 | 0.0 | 0.00 | 0.12 | 0.00 | 95 | 1020.4 |
| 20260506133858 | 31 | 325 | 0.0 | 0.0 | 0.00 | 0.12 | 0.00 | 95 | 1020.4 |
| 20260506133804 | 31 | 325 | 0.0 | 0.0 | 0.00 | 0.12 | 0.00 | 95 | 1020.4 |
| 20260506133705 | 31 | 325 | 0.0 | 0.0 | 0.00 | 0.12 | 0.00 | 95 | 1020.5 |
| 20260506133605 | 31 | 325 | 0.0 | 0.0 | 0.00 | 0.12 | 0.00 | 95 | 1020.4 |
| 20260506133512 | 31 | 325 | 0.0 | 0.0 | 0.00 | 0.12 | 0.00 | 95 | 1020.4 |
| 20260506133506 | 31 | 325 | 0.0 | 0.0 | 0.00 | 0.12 | 0.00 | 95 | 1020.4 |
| 20260506133304 | 31 | 325 | 0.0 | 0.0 | 0.00 | 0.12 | 0.00 | 95 | 1020.4 |
| 20260506133204 | 31 | 325 | 0.0 | 0.0 | 0.00 | 0.12 | 0.00 | 95 | 1020.3 |
| 20260506133100 | 31 | 325 | 0.0 | 0.0 | 0.00 | 0.12 | 0.00 | 95 | 1020.3 |
| 20260506133001 | 31 | 325 | 0.0 | 0.0 | 0.00 | 0.12 | 0.00 | 95 | 1020.3 |
| 20260506132900 | 31 | 325 | 0.0 | 0.0 | 0.00 | 0.12 | 0.00 | 95 | 1020.3 |
| 20260506132758 | 31 | 325 | 0.0 | 0.0 | 0.00 | 0.12 | 0.00 | 95 | 1020.3 |
| 20260506132658 | 31 | 325 | 0.0 | 0.0 | 0.00 | 0.12 | 0.00 | 95 | 1020.3 |
| 20260506132558 | 31 | 325 | 0.0 | 0.0 | 0.00 | 0.13 | 0.00 | 95 | 1020.3 |
| 20260506132458 | 31 | 325 | 0.0 | 0.0 | 0.00 | 0.13 | 0.00 | 95 | 1020.2 |
| 20260506132358 | 31 | 325 | 0.0 | 0.0 | 0.00 | 0.13 | 0.00 | 95 | 1020.2 |
| 20260506132259 | 31 | 325 | 0.0 | 0.0 | 0.00 | 0.13 | 0.00 | 95 | 1020.2 |
| 20260506132158 | 31 | 325 | 0.0 | 0.0 | 0.00 | 0.13 | 0.00 | 95 | 1020.2 |
| 20260506132058 | 31 | 325 | 0.0 | 0.0 | 0.00 | 0.13 | 0.00 | 95 | 1020.2 |
| 20260506131958 | 31 | 325 | 0.0 | 0.0 | 0.00 | 0.13 | 0.00 | 95 | 1020.2 |
| 20260506131855 | 31 | 325 | 0.0 | 0.0 | 0.00 | 0.13 | 0.00 | 95 | 1020.2 |
| 20260506131754 | 31 | 325 | 0.0 | 0.0 | 0.00 | 0.13 | 0.00 | 95 | 1020.2 |
| 20260506131654 | 31 | 325 | 0.0 | 0.0 | 0.00 | 0.13 | 0.00 | 95 | 1020.2 |
| 20260506131554 | 31 | 325 | 0.0 | 0.0 | 0.00 | 0.13 | 0.00 | 95 | 1020.0 |
| 20260506131506 | 31 | 325 | 0.0 | 0.0 | 0.00 | 0.13 | 0.00 | 95 | 1020.2 |
| 20260506131458 | 31 | 325 | 0.0 | 0.0 | 0.00 | 0.13 | 0.00 | 95 | 1020.0 |
| 20260506131255 | 31 | 325 | 0.0 | 0.0 | 0.00 | 0.13 | 0.00 | 95 | 1020.2 |
| 20260506131154 | 31 | 325 | 0.0 | 0.0 | 0.00 | 0.13 | 0.00 | 95 | 1020.2 |
| 20260506131054 | 31 | 325 | 0.0 | 0.0 | 0.00 | 0.13 | 0.00 | 95 | 1020.2 |
| 20260506130954 | 31 | 325 | 0.0 | 0.0 | 0.00 | 0.13 | 0.00 | 95 | 1020.0 |
| 20260506130855 | 31 | 325 | 0.0 | 0.0 | 0.00 | 0.13 | 0.00 | 95 | 1020.0 |
| 20260506130754 | 31 | 325 | 0.0 | 0.0 | 0.00 | 0.13 | 0.00 | 95 | 1020.2 |
| 20260506130654 | 31 | 325 | 0.0 | 0.0 | 0.00 | 0.13 | 0.00 | 95 | 1020.0 |
| 20260506130601 | 31 | 325 | 0.0 | 0.0 | 0.00 | 0.13 | 0.00 | 95 | 1020.0 |
| 20260506130354 | 31 | 325 | 0.0 | 0.0 | 0.00 | 0.13 | 0.00 | 95 | 1019.8 |
| 20260506130254 | 31 | 325 | 0.0 | 0.0 | 0.00 | 0.13 | 0.00 | 95 | 1019.9 |
| 20260506130154 | 31 | 325 | 0.0 | 0.0 | 0.00 | 0.13 | 0.00 | 95 | 1019.9 |
| 20260506130058 | 31 | 325 | 0.0 | 0.0 | 0.00 | 0.13 | 0.00 | 95 | 1019.8 |
| 20260506125850 | 31 | 325 | 0.0 | 0.0 | 0.00 | 0.13 | 0.00 | 95 | 1019.8 |
| 20260506125750 | 31 | 325 | 0.0 | 0.0 | 0.00 | 0.13 | 0.00 | 95 | 1019.8 |
| 20260506125651 | 31 | 325 | 0.0 | 0.0 | 0.00 | 0.13 | 0.00 | 95 | 1019.7 |
| 20260506125609 | 31 | 325 | 0.0 | 0.0 | 0.00 | 0.13 | 0.00 | 95 | 1019.8 |
| 20260506125601 | 31 | 325 | 0.0 | 0.0 | 0.00 | 0.13 | 0.00 | 95 | 1019.8 |
| 20260506125257 | 31 | 325 | 0.0 | 0.0 | 0.00 | 0.13 | 0.00 | 95 | 1019.7 |
| 20260506125051 | 31 | 325 | 0.0 | 0.0 | 0.00 | 0.13 | 0.00 | 95 | 1019.7 |
| 20260506125002 | 31 | 325 | 0.0 | 0.0 | 0.00 | 0.13 | 0.00 | 95 | 1019.6 |
| 20260506124955 | 31 | 325 | 0.0 | 0.0 | 0.00 | 0.13 | 0.00 | 95 | 1019.6 |
| 20260506124750 | 31 | 325 | 0.0 | 0.0 | 0.00 | 0.13 | 0.00 | 95 | 1019.4 |
| 20260506124650 | 31 | 325 | 0.0 | 0.0 | 0.00 | 0.13 | 0.00 | 95 | 1019.3 |
| 20260506124558 | 31 | 325 | 0.0 | 0.0 | 0.00 | 0.13 | 0.00 | 95 | 1019.3 |
| 20260506124356 | 31 | 325 | 0.0 | 0.0 | 0.00 | 0.13 | 0.00 | 95 | 1019.3 |
| 20260506124349 | 31 | 325 | 0.0 | 0.0 | 0.00 | 0.13 | 0.00 | 95 | 1019.4 |
| 20260506124250 | 31 | 325 | 0.0 | 0.0 | 0.00 | 0.13 | 0.00 | 95 | 1019.4 |
| 20260506124150 | 31 | 325 | 0.0 | 0.0 | 0.00 | 0.13 | 0.00 | 95 | 1019.4 |
| 20260506124105 | 31 | 325 | 0.0 | 0.0 | 0.00 | 0.13 | 0.00 | 95 | 1019.4 |
| 20260506123952 | 31 | 325 | 0.0 | 0.0 | 0.00 | 0.13 | 0.00 | 95 | 1019.4 |
| 20260506123759 | 31 | 325 | 0.0 | 0.0 | 0.00 | 0.13 | 0.00 | 95 | 1019.4 |
| 20260506123446 | 31 | 325 | 0.0 | 0.0 | 0.00 | 0.13 | 0.00 | 95 | 1019.2 |
| 20260506123357 | 31 | 325 | 0.0 | 0.0 | 0.00 | 0.13 | 0.00 | 95 | 1019.2 |
| 20260506123346 | 31 | 325 | 0.0 | 0.0 | 0.00 | 0.14 | 0.00 | 95 | 1019.1 |
| 20260506123246 | 31 | 325 | 0.0 | 0.0 | 0.00 | 0.14 | 0.00 | 95 | 1019.2 |
| 20260506123148 | 31 | 325 | 0.0 | 0.0 | 0.00 | 0.14 | 0.00 | 95 | 1019.2 |
| 20260506123054 | 31 | 325 | 0.0 | 0.0 | 0.00 | 0.14 | 0.00 | 95 | 1019.2 |
| 20260506122845 | 31 | 325 | 0.0 | 0.0 | 0.00 | 0.14 | 0.00 | 95 | 1019.2 |
| 20260506122747 | 31 | 325 | 0.0 | 0.0 | 0.00 | 0.14 | 0.00 | 95 | 1019.2 |
| 20260506122646 | 31 | 325 | 0.0 | 0.0 | 0.00 | 0.14 | 0.00 | 95 | 1019.3 |
| 20260506122546 | 31 | 325 | 0.0 | 0.0 | 0.00 | 0.14 | 0.00 | 95 | 1019.3 |
| 20260506122446 | 30 | 325 | 0.0 | 0.0 | 0.00 | 0.14 | 0.00 | 95 | 1019.3 |
| 20260506122346 | 31 | 325 | 0.0 | 0.0 | 0.00 | 0.14 | 0.00 | 95 | 1019.3 |
| 20260506122247 | 30 | 325 | 0.0 | 0.0 | 0.00 | 0.14 | 0.00 | 95 | 1019.3 |
| 20260506122142 | 30 | 325 | 0.0 | 0.0 | 0.00 | 0.14 | 0.00 | 95 | 1019.3 |
| 20260506122050 | 30 | 325 | 0.0 | 0.0 | 0.00 | 0.14 | 0.00 | 95 | 1019.2 |
| 20260506121856 | 30 | 325 | 0.0 | 0.0 | 0.00 | 0.14 | 0.00 | 95 | 1019.2 |
| 20260506121842 | 30 | 325 | 0.0 | 0.0 | 0.00 | 0.14 | 0.00 | 95 | 1019.3 |
| 20260506121742 | 30 | 325 | 0.0 | 0.0 | 0.00 | 0.14 | 0.00 | 95 | 1019.2 |
| 20260506121656 | 30 | 325 | 0.0 | 0.0 | 0.00 | 0.14 | 0.00 | 95 | 1019.3 |
| 20260506121356 | 30 | 325 | 0.0 | 0.0 | 0.00 | 0.14 | 0.00 | 95 | 1019.2 |
| 20260506121348 | 30 | 325 | 0.0 | 0.0 | 0.00 | 0.14 | 0.00 | 95 | 1019.3 |
| 20260506121142 | 30 | 325 | 0.0 | 0.0 | 0.00 | 0.14 | 0.00 | 95 | 1019.2 |
| 20260506121043 | 30 | 325 | 0.0 | 0.0 | 0.00 | 0.14 | 0.00 | 95 | 1019.3 |
| 20260506120942 | 30 | 325 | 0.0 | 0.0 | 0.00 | 0.14 | 0.00 | 95 | 1019.2 |
| 20260506120856 | 30 | 325 | 0.0 | 0.0 | 0.00 | 0.14 | 0.00 | 95 | 1019.2 |
| 20260506120842 | 30 | 325 | 0.0 | 0.0 | 0.00 | 0.14 | 0.00 | 95 | 1019.3 |
| 20260506120742 | 30 | 325 | 0.0 | 0.0 | 0.00 | 0.14 | 0.00 | 95 | 1019.3 |
| 20260506120642 | 30 | 325 | 0.0 | 0.0 | 0.00 | 0.14 | 0.00 | 95 | 1019.3 |
| 20260506120542 | 30 | 325 | 0.0 | 0.0 | 0.00 | 0.14 | 0.00 | 95 | 1019.3 |
| 20260506120442 | 30 | 325 | 0.0 | 0.0 | 0.00 | 0.14 | 0.00 | 95 | 1019.3 |
| 20260506120355 | 30 | 325 | 0.0 | 0.0 | 0.00 | 0.14 | 0.00 | 95 | 1019.3 |
| 20260506120342 | 30 | 325 | 0.0 | 0.0 | 0.00 | 0.14 | 0.00 | 95 | 1019.2 |
| 20260506120239 | 30 | 325 | 0.0 | 0.0 | 0.00 | 0.14 | 0.00 | 95 | 1019.2 |
| 20260506120145 | 30 | 325 | 0.0 | 0.0 | 0.00 | 0.14 | 0.00 | 95 | 1019.2 |
| 20260506115946 | 30 | 325 | 0.0 | 0.0 | 0.00 | 0.14 | 0.00 | 95 | 1019.1 |
| 20260506115939 | 30 | 325 | 0.0 | 0.0 | 0.00 | 0.14 | 0.00 | 95 | 1019.1 |
| 20260506115734 | 30 | 325 | 0.0 | 0.0 | 0.00 | 0.14 | 0.00 | 95 | 1018.8 |
| 20260506115634 | 30 | 325 | 0.0 | 0.0 | 0.00 | 0.14 | 0.00 | 95 | 1019.0 |
| 20260506115535 | 30 | 325 | 0.0 | 0.0 | 0.00 | 0.14 | 0.00 | 95 | 1019.0 |
| 20260506115434 | 30 | 325 | 0.0 | 0.0 | 0.00 | 0.14 | 0.00 | 95 | 1019.0 |
| 20260506115335 | 30 | 325 | 0.0 | 0.0 | 0.00 | 0.14 | 0.00 | 95 | 1019.0 |
| 20260506115234 | 30 | 325 | 0.0 | 0.0 | 0.00 | 0.15 | 0.00 | 95 | 1019.0 |
| 20260506115134 | 30 | 325 | 0.0 | 0.0 | 0.00 | 0.15 | 0.00 | 95 | 1019.1 |
| 20260506115033 | 30 | 325 | 0.0 | 0.0 | 0.00 | 0.15 | 0.00 | 95 | 1019.0 |
| 20260506115000 | 30 | 325 | 0.0 | 0.0 | 0.00 | 0.15 | 0.00 | 95 | 1019.0 |
| 20260506114839 | 30 | 325 | 0.0 | 0.0 | 0.00 | 0.15 | 0.00 | 95 | 1019.1 |
| 20260506114628 | 30 | 325 | 0.0 | 0.0 | 0.00 | 0.15 | 0.00 | 95 | 1019.0 |
| 20260506114531 | 30 | 325 | 0.0 | 0.0 | 0.00 | 0.15 | 0.00 | 95 | 1019.0 |
| 20260506114355 | 30 | 325 | 0.0 | 0.0 | 0.00 | 0.15 | 0.00 | 95 | 1019.0 |
| 20260506114324 | 30 | 325 | 0.0 | 0.0 | 0.00 | 0.15 | 0.00 | 95 | 1019.0 |
| 20260506114222 | 30 | 325 | 0.0 | 0.0 | 0.00 | 0.15 | 0.00 | 95 | 1019.1 |
| 20260506114119 | 30 | 325 | 0.0 | 0.0 | 0.00 | 0.15 | 0.00 | 95 | 1019.0 |
| 20260506114016 | 30 | 325 | 0.0 | 0.0 | 0.00 | 0.15 | 0.00 | 95 | 1019.0 |
| 20260506114000 | 30 | 325 | 0.0 | 0.0 | 0.00 | 0.15 | 0.00 | 95 | 1019.0 |
| 20260506113814 | 30 | 325 | 0.0 | 0.0 | 0.00 | 0.15 | 0.00 | 95 | 1019.0 |
| 20260506113714 | 30 | 325 | 0.0 | 0.0 | 0.00 | 0.15 | 0.00 | 95 | 1019.0 |
| 20260506113611 | 30 | 325 | 0.0 | 0.0 | 0.00 | 0.15 | 0.00 | 95 | 1019.0 |
| 20260506113507 | 30 | 325 | 0.0 | 0.0 | 0.00 | 0.15 | 0.00 | 95 | 1019.0 |
| 20260506113406 | 30 | 325 | 0.0 | 0.0 | 0.00 | 0.15 | 0.00 | 95 | 1019.0 |
| 20260506113352 | 30 | 325 | 0.0 | 0.0 | 0.00 | 0.15 | 0.00 | 95 | 1019.0 |
| 20260506113306 | 30 | 325 | 0.0 | 0.0 | 0.00 | 0.15 | 0.00 | 95 | 1019.0 |
| 20260506113205 | 30 | 325 | 0.0 | 0.0 | 0.00 | 0.15 | 0.00 | 95 | 1019.0 |
| 20260506113108 | 30 | 325 | 0.0 | 0.0 | 0.00 | 0.15 | 0.00 | 95 | 1018.8 |
| 20260506112850 | 30 | 325 | 0.0 | 0.0 | 0.00 | 0.16 | 0.00 | 95 | 1019.0 |
| 20260506112802 | 30 | 325 | 0.0 | 0.0 | 0.00 | 0.16 | 0.00 | 95 | 1019.0 |
| 20260506112600 | 30 | 325 | 0.0 | 0.0 | 0.00 | 0.16 | 0.00 | 95 | 1019.0 |
| 20260506112354 | 30 | 325 | 0.0 | 0.0 | 0.00 | 0.16 | 0.00 | 95 | 1018.8 |
| 20260506112350 | 30 | 325 | 0.0 | 0.0 | 0.00 | 0.16 | 0.00 | 95 | 1019.0 |
| 20260506112250 | 30 | 325 | 0.0 | 0.0 | 0.00 | 0.16 | 0.00 | 95 | 1018.8 |
| 20260506112151 | 30 | 325 | 0.0 | 0.0 | 0.00 | 0.16 | 0.00 | 95 | 1019.0 |
| 20260506112048 | 30 | 325 | 0.0 | 0.0 | 0.00 | 0.16 | 0.00 | 95 | 1019.0 |
| 20260506111944 | 30 | 325 | 0.0 | 0.0 | 0.00 | 0.16 | 0.00 | 95 | 1019.0 |
| 20260506111853 | 30 | 325 | 0.0 | 0.0 | 0.00 | 0.17 | 0.00 | 95 | 1019.0 |
| 20260506111849 | 30 | 325 | 0.0 | 0.0 | 0.00 | 0.17 | 0.00 | 95 | 1018.8 |
| 20260506111658 | 30 | 325 | 0.0 | 0.0 | 0.00 | 0.17 | 0.00 | 95 | 1018.8 |
| 20260506111347 | 30 | 325 | 0.0 | 0.0 | 0.00 | 0.17 | 0.00 | 95 | 1018.8 |
| 20260506111137 | 30 | 325 | 0.0 | 0.0 | 0.00 | 0.18 | 0.00 | 95 | 1018.7 |
| 20260506111051 | 30 | 325 | 0.0 | 0.0 | 0.00 | 0.18 | 0.00 | 95 | 1018.7 |
| 20260506111044 | 30 | 325 | 0.0 | 0.0 | 0.00 | 0.18 | 0.00 | 95 | 1018.7 |
| 20260506110731 | 30 | 325 | 0.0 | 0.0 | 0.00 | 0.18 | 0.00 | 95 | 1018.6 |
| 20260506110630 | 30 | 325 | 0.0 | 0.0 | 0.00 | 0.18 | 0.00 | 95 | 1018.6 |
| 20260506110531 | 30 | 325 | 0.0 | 0.0 | 0.00 | 0.18 | 0.00 | 95 | 1018.6 |
| 20260506110322 | 30 | 325 | 0.0 | 0.0 | 0.00 | 0.18 | 0.00 | 95 | 1018.6 |
| 20260506110228 | 30 | 325 | 0.0 | 0.0 | 0.00 | 0.18 | 0.00 | 95 | 1018.6 |
| 20260506110022 | 30 | 325 | 0.0 | 0.0 | 0.00 | 0.18 | 0.00 | 95 | 1018.6 |
| 20260506105918 | 30 | 325 | 0.0 | 0.0 | 0.00 | 0.18 | 0.00 | 95 | 1018.5 |
| 20260506105816 | 30 | 325 | 0.0 | 0.0 | 0.00 | 0.18 | 0.00 | 95 | 1018.6 |
| 20260506105716 | 30 | 325 | 0.0 | 0.0 | 0.00 | 0.18 | 0.00 | 95 | 1018.6 |
| 20260506105616 | 30 | 325 | 0.0 | 0.0 | 0.00 | 0.19 | 0.00 | 95 | 1018.6 |
| 20260506105516 | 30 | 325 | 0.0 | 0.0 | 0.00 | 0.19 | 0.00 | 95 | 1018.6 |
| 20260506105410 | 30 | 325 | 0.0 | 0.0 | 0.00 | 0.19 | 0.00 | 95 | 1018.6 |
| 20260506105341 | 30 | 325 | 0.0 | 0.0 | 0.00 | 0.19 | 0.00 | 95 | 1018.7 |
| 20260506105310 | 30 | 325 | 0.0 | 0.0 | 0.00 | 0.19 | 0.00 | 95 | 1018.7 |
| 20260506105217 | 30 | 325 | 0.0 | 0.0 | 0.00 | 0.19 | 0.00 | 95 | 1018.6 |
| 20260506105026 | 30 | 325 | 0.0 | 0.0 | 0.00 | 0.19 | 0.00 | 95 | 1018.6 |
| 20260506104911 | 30 | 325 | 0.0 | 0.0 | 0.00 | 0.19 | 0.00 | 95 | 1018.6 |
| 20260506104707 | 30 | 325 | 0.0 | 0.0 | 0.00 | 0.19 | 0.00 | 95 | 1018.7 |
| 20260506104604 | 30 | 325 | 0.0 | 0.0 | 0.00 | 0.19 | 0.00 | 95 | 1018.7 |
| 20260506104502 | 30 | 325 | 0.0 | 0.0 | 0.00 | 0.19 | 0.00 | 95 | 1018.7 |
| 20260506104403 | 30 | 325 | 0.0 | 0.0 | 0.00 | 0.19 | 0.00 | 95 | 1018.6 |
| 20260506104340 | 30 | 325 | 0.0 | 0.0 | 0.00 | 0.19 | 0.00 | 95 | 1018.5 |
| 20260506104259 | 30 | 325 | 0.0 | 0.0 | 0.00 | 0.19 | 0.00 | 95 | 1018.5 |
| 20260506104200 | 30 | 325 | 0.0 | 0.0 | 0.00 | 0.19 | 0.00 | 95 | 1018.4 |
| 20260506104058 | 30 | 325 | 0.0 | 0.0 | 0.00 | 0.19 | 0.00 | 95 | 1018.4 |
| 20260506104004 | 30 | 325 | 0.0 | 0.0 | 0.00 | 0.19 | 0.00 | 95 | 1018.4 |
| 20260506103838 | 30 | 325 | 0.0 | 0.0 | 0.00 | 0.19 | 0.00 | 95 | 1018.5 |
| 20260506103756 | 30 | 325 | 0.0 | 0.0 | 0.00 | 0.19 | 0.00 | 95 | 1018.5 |
| 20260506103653 | 30 | 325 | 0.0 | 0.0 | 0.00 | 0.19 | 0.00 | 95 | 1018.4 |
| 20260506103552 | 30 | 325 | 0.0 | 0.0 | 0.00 | 0.19 | 0.00 | 95 | 1018.4 |
| 20260506103457 | 30 | 325 | 0.0 | 0.0 | 0.00 | 0.19 | 0.00 | 95 | 1018.4 |
| 20260506103335 | 30 | 325 | 0.0 | 0.0 | 0.00 | 0.19 | 0.00 | 95 | 1018.3 |
| 20260506103254 | 30 | 325 | 0.0 | 0.0 | 0.00 | 0.19 | 0.00 | 95 | 1018.4 |
| 20260506103052 | 30 | 325 | 0.0 | 0.0 | 0.00 | 0.19 | 0.00 | 95 | 1018.4 |
| 20260506102834 | 30 | 325 | 0.0 | 0.0 | 0.00 | 0.20 | 0.00 | 95 | 1018.5 |
| 20260506102742 | 30 | 325 | 0.0 | 0.0 | 0.00 | 0.20 | 0.00 | 95 | 1018.5 |
| 20260506102642 | 30 | 325 | 0.0 | 0.0 | 0.00 | 0.20 | 0.00 | 95 | 1018.5 |
| 20260506102541 | 30 | 325 | 0.0 | 0.0 | 0.00 | 0.20 | 0.00 | 95 | 1018.5 |
| 20260506102437 | 30 | 325 | 0.0 | 0.0 | 0.00 | 0.20 | 0.00 | 95 | 1018.5 |
| 20260506102331 | 30 | 325 | 0.0 | 0.0 | 0.00 | 0.20 | 0.00 | 95 | 1018.5 |
| 20260506102236 | 30 | 325 | 0.0 | 0.0 | 0.00 | 0.20 | 0.00 | 95 | 1018.5 |
| 20260506102136 | 30 | 325 | 0.0 | 0.0 | 0.00 | 0.20 | 0.00 | 95 | 1018.5 |
| 20260506102034 | 30 | 325 | 0.0 | 0.0 | 0.00 | 0.20 | 0.00 | 95 | 1018.5 |
| 20260506101931 | 30 | 325 | 0.0 | 0.0 | 0.00 | 0.21 | 0.00 | 95 | 1018.5 |
| 20260506101832 | 30 | 325 | 0.0 | 0.0 | 0.00 | 0.21 | 0.00 | 95 | 1018.5 |
| 20260506101730 | 30 | 325 | 0.0 | 0.0 | 0.00 | 0.21 | 0.00 | 95 | 1018.6 |
| 20260506101630 | 30 | 325 | 0.0 | 0.0 | 0.00 | 0.21 | 0.00 | 95 | 1018.6 |
| 20260506101528 | 30 | 325 | 0.0 | 0.0 | 0.00 | 0.21 | 0.00 | 95 | 1018.7 |
| 20260506101449 | 30 | 325 | 0.0 | 0.0 | 0.00 | 0.21 | 0.00 | 95 | 1018.7 |
| 20260506101442 | 30 | 325 | 0.0 | 0.0 | 0.00 | 0.21 | 0.00 | 95 | 1018.7 |
| 20260506101021 | 30 | 325 | 0.0 | 0.0 | 0.00 | 0.21 | 0.00 | 95 | 1018.6 |
| 20260506100920 | 30 | 325 | 0.0 | 0.0 | 0.00 | 0.21 | 0.00 | 95 | 1018.6 |
| 20260506100821 | 30 | 325 | 0.0 | 0.0 | 0.00 | 0.21 | 0.00 | 95 | 1018.6 |
| 20260506100718 | 30 | 325 | 0.0 | 0.0 | 0.00 | 0.21 | 0.00 | 95 | 1018.7 |
| 20260506100618 | 30 | 325 | 0.0 | 0.0 | 0.00 | 0.21 | 0.00 | 95 | 1018.7 |
| 20260506100515 | 30 | 325 | 0.0 | 0.0 | 0.00 | 0.21 | 0.00 | 95 | 1018.7 |
| 20260506100413 | 30 | 325 | 0.0 | 0.0 | 0.00 | 0.21 | 0.00 | 95 | 1018.7 |
| 20260506100318 | 30 | 325 | 0.0 | 0.0 | 0.00 | 0.21 | 0.00 | 95 | 1018.7 |
| 20260506100112 | 30 | 325 | 0.0 | 0.0 | 0.00 | 0.21 | 0.00 | 95 | 1018.7 |
| 20260506100014 | 30 | 325 | 0.0 | 0.0 | 0.00 | 0.21 | 0.00 | 95 | 1018.7 |
| 20260506095808 | 30 | 325 | 0.0 | 0.0 | 0.00 | 0.21 | 0.00 | 95 | 1018.7 |
| 20260506095706 | 30 | 325 | 0.0 | 0.0 | 0.00 | 0.21 | 0.00 | 95 | 1018.7 |
| 20260506095605 | 30 | 325 | 0.0 | 0.0 | 0.00 | 0.21 | 0.00 | 95 | 1018.7 |
| 20260506095504 | 30 | 325 | 0.0 | 0.0 | 0.00 | 0.21 | 0.00 | 95 | 1018.6 |
| 20260506095403 | 30 | 325 | 0.0 | 0.0 | 0.00 | 0.21 | 0.00 | 95 | 1018.6 |
| 20260506095324 | 31 | 325 | 0.0 | 0.0 | 0.00 | 0.21 | 0.00 | 95 | 1018.6 |
| 20260506095305 | 31 | 325 | 0.0 | 0.0 | 0.00 | 0.21 | 0.00 | 95 | 1018.6 |
| 20260506095201 | 31 | 325 | 0.0 | 0.0 | 0.00 | 0.21 | 0.00 | 95 | 1018.6 |
| 20260506095059 | 31 | 325 | 0.0 | 0.0 | 0.00 | 0.21 | 0.00 | 95 | 1018.6 |
| 20260506094959 | 31 | 325 | 0.0 | 0.0 | 0.00 | 0.21 | 0.00 | 95 | 1018.7 |
| 20260506094855 | 31 | 325 | 0.0 | 0.0 | 0.00 | 0.22 | 0.00 | 95 | 1018.7 |
| 20260506094823 | 31 | 325 | 0.0 | 0.0 | 0.00 | 0.22 | 0.00 | 95 | 1018.7 |
| 20260506094758 | 31 | 325 | 0.0 | 0.0 | 0.00 | 0.22 | 0.00 | 95 | 1018.7 |
| 20260506094552 | 31 | 325 | 0.0 | 0.0 | 0.00 | 0.22 | 0.00 | 95 | 1018.7 |
| 20260506094452 | 31 | 325 | 0.0 | 0.0 | 0.00 | 0.22 | 0.00 | 95 | 1018.6 |
| 20260506094402 | 31 | 325 | 0.0 | 0.0 | 0.00 | 0.22 | 0.00 | 95 | 1018.7 |
| 20260506094323 | 31 | 325 | 0.0 | 0.0 | 0.00 | 0.22 | 0.00 | 95 | 1018.7 |
| 20260506094318 | 31 | 325 | 0.0 | 0.0 | 0.00 | 0.22 | 0.00 | 95 | 1018.7 |
| 20260506094204 | 31 | 325 | 0.0 | 0.0 | 0.00 | 0.22 | 0.00 | 95 | 1018.6 |
| 20260506094124 | 31 | 325 | 0.0 | 0.0 | 0.00 | 0.22 | 0.00 | 95 | 1018.6 |
| 20260506093944 | 31 | 325 | 0.0 | 0.0 | 0.00 | 0.22 | 0.00 | 95 | 1018.6 |
| 20260506093803 | 31 | 325 | 0.0 | 0.0 | 0.00 | 0.22 | 0.00 | 95 | 1018.5 |
| 20260506093649 | 31 | 325 | 0.0 | 0.0 | 0.00 | 0.22 | 0.00 | 95 | 1018.5 |
| 20260506093550 | 31 | 325 | 0.0 | 0.0 | 0.00 | 0.22 | 0.00 | 95 | 1018.4 |
| 20260506093509 | 31 | 325 | 0.0 | 0.0 | 0.00 | 0.22 | 0.00 | 95 | 1018.5 |
| 20260506093502 | 31 | 325 | 0.0 | 0.0 | 0.00 | 0.22 | 0.00 | 95 | 1018.5 |
| 20260506093147 | 31 | 325 | 0.0 | 0.0 | 0.00 | 0.22 | 0.00 | 95 | 1018.5 |
| 20260506093047 | 31 | 325 | 0.0 | 0.0 | 0.00 | 0.22 | 0.00 | 95 | 1018.4 |
| 20260506092951 | 31 | 325 | 0.0 | 0.0 | 0.00 | 0.23 | 0.00 | 95 | 1018.5 |
| 20260506092819 | 31 | 325 | 0.0 | 0.0 | 0.00 | 0.23 | 0.00 | 95 | 1018.4 |
| 20260506092749 | 31 | 325 | 0.0 | 0.0 | 0.00 | 0.23 | 0.00 | 95 | 1018.4 |
| 20260506092541 | 31 | 325 | 0.0 | 0.0 | 0.00 | 0.24 | 0.00 | 95 | 1018.5 |
| 20260506092441 | 31 | 325 | 0.0 | 0.0 | 0.00 | 0.24 | 0.00 | 95 | 1018.5 |
| 20260506092426 | 31 | 325 | 0.0 | 0.0 | 0.00 | 0.24 | 0.00 | 95 | 1018.4 |
| 20260506092240 | 31 | 325 | 0.0 | 0.0 | 0.00 | 0.24 | 0.00 | 95 | 1018.4 |
| 20260506092146 | 31 | 325 | 0.0 | 0.0 | 0.00 | 0.24 | 0.00 | 95 | 1018.4 |
| 20260506091939 | 31 | 325 | 0.0 | 0.0 | 0.00 | 0.24 | 0.00 | 95 | 1018.4 |
| 20260506091813 | 31 | 325 | 0.0 | 0.0 | 0.00 | 0.24 | 0.00 | 95 | 1018.5 |
| 20260506091736 | 31 | 325 | 0.0 | 0.0 | 0.00 | 0.24 | 0.00 | 95 | 1018.4 |
| 20260506091634 | 31 | 325 | 0.0 | 0.0 | 0.00 | 0.24 | 0.00 | 95 | 1018.4 |
| 20260506091531 | 31 | 325 | 0.0 | 0.0 | 0.00 | 0.24 | 0.00 | 95 | 1018.4 |
| 20260506091427 | 31 | 325 | 0.0 | 0.0 | 0.00 | 0.24 | 0.00 | 95 | 1018.4 |
| 20260506091306 | 31 | 325 | 0.0 | 0.0 | 0.00 | 0.24 | 0.00 | 95 | 1018.4 |
| 20260506091228 | 31 | 325 | 0.0 | 0.0 | 0.00 | 0.24 | 0.00 | 95 | 1018.5 |
| 20260506091132 | 31 | 325 | 0.0 | 0.0 | 0.00 | 0.24 | 0.00 | 95 | 1018.5 |
| 20260506090921 | 31 | 325 | 0.0 | 0.0 | 0.00 | 0.24 | 0.00 | 95 | 1018.4 |
| 20260506090909 | 31 | 325 | 0.0 | 0.0 | 0.00 | 0.24 | 0.00 | 95 | 1018.4 |
| 20260506090722 | 31 | 325 | 0.0 | 0.0 | 0.00 | 0.24 | 0.00 | 95 | 1018.4 |
| 20260506090628 | 31 | 325 | 0.0 | 0.0 | 0.00 | 0.24 | 0.00 | 95 | 1018.4 |
| 20260506090420 | 31 | 325 | 0.0 | 0.0 | 0.00 | 0.24 | 0.00 | 95 | 1018.4 |
| 20260506090320 | 31 | 325 | 0.0 | 0.0 | 0.00 | 0.24 | 0.00 | 95 | 1018.4 |
| 20260506090255 | 31 | 325 | 0.0 | 0.0 | 0.00 | 0.24 | 0.00 | 95 | 1018.3 |
| 20260506090218 | 31 | 325 | 0.0 | 0.0 | 0.00 | 0.24 | 0.00 | 95 | 1018.3 |
| 20260506090116 | 31 | 325 | 0.0 | 0.0 | 0.00 | 0.24 | 0.00 | 95 | 1018.3 |
| 20260506090013 | 31 | 325 | 0.0 | 0.0 | 0.00 | 0.24 | 0.00 | 95 | 1018.3 |
| 20260506085910 | 31 | 325 | 0.0 | 0.0 | 0.00 | 0.24 | 0.00 | 95 | 1018.3 |
| 20260506085809 | 31 | 325 | 0.0 | 0.0 | 0.00 | 0.24 | 0.00 | 95 | 1018.3 |
| 20260506085748 | 31 | 325 | 0.0 | 0.0 | 0.00 | 0.24 | 0.00 | 95 | 1018.3 |
| 20260506085711 | 31 | 325 | 0.0 | 0.0 | 0.00 | 0.24 | 0.00 | 95 | 1018.3 |
| 20260506085609 | 31 | 325 | 0.0 | 0.0 | 0.00 | 0.24 | 0.00 | 95 | 1018.3 |
| 20260506085506 | 31 | 325 | 0.0 | 0.0 | 0.00 | 0.24 | 0.00 | 95 | 1018.3 |
| 20260506085405 | 31 | 325 | 0.0 | 0.0 | 0.00 | 0.24 | 0.00 | 95 | 1018.4 |
| 20260506085306 | 31 | 325 | 0.0 | 0.0 | 0.00 | 0.24 | 0.00 | 95 | 1018.4 |
| 20260506085242 | 31 | 325 | 0.0 | 0.0 | 0.00 | 0.24 | 0.00 | 95 | 1018.4 |
| 20260506085205 | 31 | 325 | 0.0 | 0.0 | 0.00 | 0.24 | 0.00 | 95 | 1018.4 |
| 20260506085103 | 31 | 325 | 0.0 | 0.0 | 0.00 | 0.24 | 0.00 | 95 | 1018.3 |
| 20260506085004 | 31 | 325 | 0.0 | 0.0 | 0.00 | 0.24 | 0.00 | 95 | 1018.3 |
| 20260506084901 | 31 | 325 | 0.0 | 0.0 | 0.00 | 0.24 | 0.00 | 95 | 1018.3 |
| 20260506084737 | 31 | 325 | 0.0 | 0.0 | 0.00 | 0.24 | 0.00 | 95 | 1018.3 |
| 20260506084659 | 31 | 325 | 0.0 | 0.0 | 0.00 | 0.24 | 0.00 | 95 | 1018.3 |
| 20260506084557 | 31 | 325 | 0.0 | 0.0 | 0.00 | 0.24 | 0.00 | 95 | 1018.4 |
| 20260506084510 | 31 | 325 | 0.0 | 0.0 | 0.00 | 0.24 | 0.00 | 95 | 1018.4 |
| 20260506084232 | 31 | 325 | 0.0 | 0.0 | 0.00 | 0.24 | 0.00 | 95 | 1018.4 |
| 20260506084155 | 31 | 325 | 0.0 | 0.0 | 0.00 | 0.24 | 0.00 | 95 | 1018.4 |
| 20260506084051 | 31 | 325 | 0.0 | 0.0 | 0.00 | 0.24 | 0.00 | 95 | 1018.4 |
| 20260506083952 | 31 | 325 | 0.0 | 0.0 | 0.00 | 0.24 | 0.00 | 95 | 1018.4 |
| 20260506083725 | 31 | 325 | 0.0 | 0.0 | 0.00 | 0.24 | 0.00 | 95 | 1018.4 |
| 20260506083645 | 31 | 325 | 0.0 | 0.0 | 0.00 | 0.24 | 0.00 | 95 | 1018.4 |
| 20260506083545 | 31 | 325 | 0.0 | 0.0 | 0.00 | 0.24 | 0.00 | 95 | 1018.4 |
| 20260506083440 | 31 | 325 | 0.0 | 0.0 | 0.00 | 0.24 | 0.00 | 95 | 1018.4 |
| 20260506083340 | 31 | 325 | 0.0 | 0.0 | 0.00 | 0.24 | 0.00 | 95 | 1018.4 |
| 20260506083219 | 31 | 325 | 0.0 | 0.0 | 0.00 | 0.24 | 0.00 | 95 | 1018.4 |
| 20260506083140 | 31 | 325 | 0.0 | 0.0 | 0.00 | 0.24 | 0.00 | 95 | 1018.4 |
| 20260506083039 | 31 | 325 | 0.0 | 0.0 | 0.00 | 0.24 | 0.00 | 95 | 1018.4 |
| 20260506082940 | 31 | 325 | 0.0 | 0.0 | 0.00 | 0.24 | 0.00 | 95 | 1018.4 |
| 20260506082838 | 31 | 325 | 0.0 | 0.0 | 0.00 | 0.24 | 0.00 | 95 | 1018.3 |
| 20260506082713 | 31 | 325 | 0.0 | 0.0 | 0.00 | 0.24 | 0.00 | 95 | 1018.3 |
| 20260506082636 | 31 | 325 | 0.0 | 0.0 | 0.00 | 0.24 | 0.00 | 95 | 1018.3 |
| 20260506082534 | 31 | 325 | 0.0 | 0.0 | 0.00 | 0.24 | 0.00 | 95 | 1018.3 |
| 20260506082430 | 31 | 325 | 0.0 | 0.0 | 0.00 | 0.24 | 0.00 | 95 | 1018.3 |
| 20260506082327 | 31 | 325 | 0.0 | 0.0 | 0.00 | 0.24 | 0.00 | 95 | 1018.3 |
| 20260506082206 | 31 | 325 | 0.0 | 0.0 | 0.00 | 0.24 | 0.00 | 95 | 1018.3 |
| 20260506082134 | 31 | 325 | 0.0 | 0.0 | 0.00 | 0.24 | 0.00 | 95 | 1018.3 |
| 20260506081927 | 31 | 325 | 0.0 | 0.0 | 0.00 | 0.24 | 0.00 | 95 | 1018.3 |
| 20260506081826 | 31 | 325 | 0.0 | 0.0 | 0.00 | 0.24 | 0.00 | 95 | 1018.3 |
| 20260506081808 | 31 | 325 | 0.0 | 0.0 | 0.00 | 0.24 | 0.00 | 95 | 1018.3 |
| 20260506081623 | 31 | 325 | 0.0 | 0.0 | 0.00 | 0.24 | 0.00 | 95 | 1018.3 |
| 20260506081521 | 31 | 325 | 0.0 | 0.0 | 0.00 | 0.24 | 0.00 | 95 | 1018.3 |
| 20260506081421 | 31 | 325 | 0.0 | 0.0 | 0.00 | 0.24 | 0.00 | 95 | 1018.3 |
| 20260506081319 | 31 | 325 | 0.0 | 0.0 | 0.00 | 0.24 | 0.00 | 95 | 1018.3 |
| 20260506081229 | 31 | 325 | 0.0 | 0.0 | 0.00 | 0.24 | 0.00 | 95 | 1018.4 |
| 20260506081222 | 31 | 325 | 0.0 | 0.0 | 0.00 | 0.24 | 0.00 | 95 | 1018.4 |
| 20260506081015 | 31 | 325 | 0.0 | 0.0 | 0.00 | 0.24 | 0.00 | 95 | 1018.3 |
| 20260506080911 | 31 | 325 | 0.0 | 0.0 | 0.00 | 0.24 | 0.00 | 95 | 1018.3 |
| 20260506080809 | 31 | 325 | 0.0 | 0.0 | 0.00 | 0.24 | 0.00 | 95 | 1018.4 |
| 20260506080711 | 31 | 325 | 0.0 | 0.0 | 0.00 | 0.24 | 0.00 | 95 | 1018.3 |
| 20260506080649 | 31 | 325 | 0.0 | 0.0 | 0.00 | 0.24 | 0.00 | 95 | 1018.3 |
| 20260506080610 | 31 | 325 | 0.0 | 0.0 | 0.00 | 0.24 | 0.00 | 95 | 1018.3 |
| 20260506080509 | 31 | 325 | 0.0 | 0.0 | 0.00 | 0.24 | 0.00 | 95 | 1018.4 |
| 20260506080409 | 31 | 325 | 0.0 | 0.0 | 0.00 | 0.24 | 0.00 | 95 | 1018.4 |
| 20260506080325 | 31 | 325 | 0.0 | 0.0 | 0.00 | 0.24 | 0.00 | 95 | 1018.4 |
| 20260506080210 | 31 | 325 | 0.0 | 0.0 | 0.00 | 0.24 | 0.00 | 95 | 1018.4 |
| 20260506073434 | 31 | 325 | 0.0 | 0.0 | 0.00 | 0.24 | 0.00 | 95 | 1018.3 |
| 20260506073330 | 31 | 325 | 0.0 | 0.0 | 0.00 | 0.24 | 0.00 | 95 | 1018.3 |
| 20260506073227 | 31 | 325 | 0.0 | 0.0 | 0.00 | 0.24 | 0.00 | 95 | 1018.3 |
| 20260506073108 | 31 | 325 | 0.0 | 0.0 | 0.00 | 0.24 | 0.00 | 95 | 1018.3 |
| 20260506073035 | 31 | 325 | 0.0 | 0.0 | 0.00 | 0.24 | 0.00 | 95 | 1018.4 |
| 20260506072828 | 31 | 325 | 0.0 | 0.0 | 0.00 | 0.24 | 0.00 | 95 | 1018.4 |
| 20260506072734 | 31 | 325 | 0.0 | 0.0 | 0.00 | 0.24 | 0.00 | 95 | 1018.4 |
| 20260506072601 | 31 | 325 | 0.0 | 0.0 | 0.00 | 0.24 | 0.00 | 95 | 1018.4 |
| 20260506072524 | 31 | 325 | 0.0 | 0.0 | 0.00 | 0.24 | 0.00 | 95 | 1018.4 |
| 20260506072430 | 31 | 325 | 0.0 | 0.0 | 0.00 | 0.24 | 0.00 | 95 | 1018.4 |
| 20260506072116 | 31 | 325 | 0.0 | 0.0 | 0.00 | 0.24 | 0.00 | 95 | 1018.3 |
| 20260506072055 | 31 | 325 | 0.0 | 0.0 | 0.00 | 0.24 | 0.00 | 95 | 1018.3 |
| 20260506072016 | 31 | 325 | 0.0 | 0.0 | 0.00 | 0.24 | 0.00 | 95 | 1018.3 |
| 20260506071916 | 32 | 325 | 0.0 | 0.0 | 0.00 | 0.24 | 0.00 | 95 | 1018.3 |
| 20260506071815 | 31 | 325 | 0.0 | 0.0 | 0.00 | 0.24 | 0.00 | 95 | 1018.3 |
| 20260506071713 | 32 | 325 | 0.0 | 0.0 | 0.00 | 0.24 | 0.00 | 95 | 1018.3 |
| 20260506071612 | 32 | 325 | 0.0 | 0.0 | 0.00 | 0.24 | 0.00 | 95 | 1018.3 |
| 20260506071549 | 32 | 325 | 0.0 | 0.0 | 0.00 | 0.24 | 0.00 | 95 | 1018.4 |
| 20260506071512 | 31 | 325 | 0.0 | 0.0 | 0.00 | 0.24 | 0.00 | 95 | 1018.4 |
| 20260506071409 | 31 | 325 | 0.0 | 0.0 | 0.00 | 0.24 | 0.00 | 95 | 1018.3 |
| 20260506071306 | 31 | 325 | 0.0 | 0.0 | 0.00 | 0.24 | 0.00 | 95 | 1018.4 |
| 20260506071203 | 31 | 325 | 0.0 | 0.0 | 0.00 | 0.24 | 0.00 | 95 | 1018.3 |
| 20260506071125 | 31 | 325 | 0.0 | 0.0 | 0.00 | 0.24 | 0.00 | 95 | 1018.4 |
| 20260506071118 | 32 | 325 | 0.0 | 0.0 | 0.00 | 0.24 | 0.00 | 95 | 1018.3 |
| 20260506070658 | 31 | 325 | 0.0 | 0.0 | 0.00 | 0.24 | 0.00 | 95 | 1018.3 |
| 20260506070558 | 31 | 325 | 0.0 | 0.0 | 0.00 | 0.24 | 0.00 | 95 | 1018.4 |
| 20260506070536 | 31 | 325 | 0.0 | 0.0 | 0.00 | 0.24 | 0.00 | 95 | 1018.3 |
| 20260506070457 | 31 | 325 | 0.0 | 0.0 | 0.00 | 0.24 | 0.00 | 95 | 1018.3 |
| 20260506070356 | 31 | 325 | 0.0 | 0.0 | 0.00 | 0.24 | 0.00 | 95 | 1018.4 |
| 20260506070252 | 32 | 325 | 0.0 | 0.0 | 0.00 | 0.24 | 0.00 | 95 | 1018.4 |
| 20260506070151 | 31 | 325 | 0.0 | 0.0 | 0.00 | 0.24 | 0.00 | 95 | 1018.4 |
| 20260506062448 | 31 | 325 | 0.0 | 0.0 | 0.00 | 0.24 | 0.00 | 95 | 1018.3 |
| 20260506062411 | 32 | 325 | 0.0 | 0.0 | 0.00 | 0.24 | 0.00 | 95 | 1018.3 |
| 20260506062311 | 31 | 325 | 0.0 | 0.0 | 0.00 | 0.24 | 0.00 | 95 | 1018.1 |
| 20260506062206 | 31 | 325 | 0.0 | 0.0 | 0.00 | 0.24 | 0.00 | 95 | 1018.3 |
| 20260506062105 | 31 | 325 | 0.0 | 0.0 | 0.00 | 0.24 | 0.00 | 95 | 1018.1 |
| 20260506062004 | 31 | 325 | 0.0 | 0.0 | 0.00 | 0.24 | 0.00 | 95 | 1018.1 |
| 20260506061942 | 31 | 325 | 0.0 | 0.0 | 0.00 | 0.24 | 0.00 | 95 | 1018.1 |
| 20260506061904 | 31 | 325 | 0.0 | 0.0 | 0.00 | 0.24 | 0.00 | 95 | 1018.1 |
| 20260506061817 | 31 | 325 | 0.0 | 0.0 | 0.00 | 0.24 | 0.00 | 95 | 1018.0 |
| 20260506061503 | 31 | 325 | 0.0 | 0.0 | 0.00 | 0.24 | 0.00 | 95 | 1018.1 |
| 20260506061443 | 31 | 325 | 0.0 | 0.0 | 0.00 | 0.24 | 0.00 | 95 | 1018.0 |
| 20260506061401 | 31 | 325 | 0.0 | 0.0 | 0.00 | 0.24 | 0.00 | 95 | 1018.0 |
| 20260506061257 | 32 | 325 | 0.0 | 0.0 | 0.00 | 0.24 | 0.00 | 95 | 1018.0 |
| 20260506061158 | 32 | 325 | 0.0 | 0.0 | 0.00 | 0.24 | 0.00 | 95 | 1018.0 |
| 20260506061055 | 32 | 325 | 0.0 | 0.0 | 0.00 | 0.24 | 0.00 | 95 | 1018.0 |
| 20260506060941 | 32 | 325 | 0.0 | 0.0 | 0.00 | 0.24 | 0.00 | 95 | 1018.0 |
| 20260506060853 | 31 | 325 | 0.0 | 0.0 | 0.00 | 0.24 | 0.00 | 95 | 1018.0 |
| 20260506060751 | 32 | 325 | 0.0 | 0.0 | 0.00 | 0.24 | 0.00 | 95 | 1018.1 |
| 20260506060659 | 32 | 325 | 0.0 | 0.0 | 0.00 | 0.24 | 0.00 | 95 | 1018.0 |
| 20260506060652 | 32 | 325 | 0.0 | 0.0 | 0.00 | 0.24 | 0.00 | 95 | 1017.9 |
| 20260506060346 | 32 | 325 | 0.0 | 0.0 | 0.00 | 0.24 | 0.00 | 95 | 1018.0 |
| 20260506060246 | 32 | 325 | 0.0 | 0.0 | 0.00 | 0.24 | 0.00 | 95 | 1018.0 |
| 20260506060146 | 32 | 325 | 0.0 | 0.0 | 0.00 | 0.24 | 0.00 | 95 | 1018.0 |
| 20260506051348 | 32 | 325 | 0.0 | 0.0 | 0.00 | 0.24 | 0.24 | 95 | 1018.1 |
| 20260506051246 | 32 | 325 | 0.0 | 0.0 | 0.00 | 0.24 | 0.24 | 95 | 1018.1 |
| 20260506051144 | 32 | 325 | 0.0 | 0.0 | 0.00 | 0.24 | 0.24 | 95 | 1018.0 |
| 20260506051044 | 32 | 325 | 0.0 | 0.0 | 0.00 | 0.24 | 0.24 | 95 | 1018.1 |
| 20260506050943 | 32 | 324 | 0.0 | 0.0 | 0.00 | 0.24 | 0.24 | 95 | 1018.0 |
| 20260506050927 | 32 | 325 | 0.0 | 0.0 | 0.00 | 0.24 | 0.24 | 95 | 1018.0 |
| 20260506050842 | 32 | 325 | 0.0 | 0.0 | 0.00 | 0.24 | 0.24 | 95 | 1018.0 |
| 20260506050740 | 32 | 325 | 0.0 | 0.0 | 0.00 | 0.24 | 0.24 | 95 | 1017.9 |
| 20260506050638 | 32 | 325 | 0.0 | 0.0 | 0.00 | 0.24 | 0.24 | 95 | 1018.0 |
| 20260506050538 | 32 | 325 | 0.0 | 0.0 | 0.00 | 0.24 | 0.24 | 95 | 1018.0 |
| 20260506050426 | 32 | 325 | 0.0 | 0.0 | 0.00 | 0.24 | 0.24 | 95 | 1017.9 |
| 20260506050341 | 32 | 325 | 0.0 | 0.0 | 0.00 | 0.24 | 0.24 | 95 | 1017.9 |
| 20260506050131 | 32 | 325 | 0.0 | 0.0 | 0.00 | 0.24 | 0.24 | 95 | 1017.9 |
| 20260506045126 | 32 | 325 | 0.0 | 0.0 | 0.00 | 0.24 | 0.24 | 95 | 1017.8 |
| 20260506045034 | 32 | 325 | 0.0 | 0.0 | 0.00 | 0.24 | 0.24 | 95 | 1017.8 |
| 20260506044922 | 32 | 325 | 0.0 | 0.0 | 0.00 | 0.24 | 0.24 | 95 | 1017.8 |
| 20260506044827 | 32 | 325 | 0.0 | 0.0 | 0.00 | 0.24 | 0.24 | 95 | 1017.8 |
| 20260506044620 | 32 | 325 | 0.0 | 0.0 | 0.00 | 0.24 | 0.24 | 95 | 1017.8 |
| 20260506044528 | 32 | 325 | 0.0 | 0.0 | 0.00 | 0.24 | 0.24 | 95 | 1017.8 |
| 20260506044416 | 32 | 325 | 0.0 | 0.0 | 0.00 | 0.24 | 0.24 | 95 | 1017.7 |
| 20260506044315 | 32 | 325 | 0.0 | 0.0 | 0.00 | 0.24 | 0.24 | 95 | 1017.7 |
| 20260506044214 | 32 | 325 | 0.0 | 0.0 | 0.00 | 0.24 | 0.24 | 95 | 1017.8 |
| 20260506044121 | 32 | 325 | 0.0 | 0.0 | 0.00 | 0.24 | 0.24 | 95 | 1017.7 |
| 20260506044007 | 32 | 325 | 0.0 | 0.0 | 0.00 | 0.24 | 0.24 | 95 | 1017.8 |
| 20260506043802 | 32 | 325 | 0.0 | 0.0 | 0.00 | 0.24 | 0.24 | 95 | 1017.8 |
| 20260506043659 | 32 | 325 | 0.0 | 0.0 | 0.00 | 0.24 | 0.24 | 95 | 1017.8 |
| 20260506043557 | 32 | 325 | 0.0 | 0.0 | 0.00 | 0.24 | 0.24 | 95 | 1017.9 |
| 20260506043456 | 32 | 325 | 0.0 | 0.0 | 0.00 | 0.24 | 0.24 | 95 | 1017.9 |
| 20260506043414 | 32 | 324 | 0.0 | 0.0 | 0.00 | 0.24 | 0.24 | 95 | 1017.9 |
| 20260506043355 | 32 | 325 | 0.0 | 0.0 | 0.00 | 0.24 | 0.24 | 95 | 1017.9 |
| 20260506043254 | 32 | 325 | 0.0 | 0.0 | 0.00 | 0.24 | 0.24 | 95 | 1017.9 |
| 20260506043158 | 32 | 325 | 0.0 | 0.0 | 0.00 | 0.24 | 0.24 | 95 | 1018.0 |
| 20260506042954 | 32 | 325 | 0.0 | 0.0 | 0.00 | 0.24 | 0.24 | 95 | 1017.9 |
| 20260506042748 | 32 | 325 | 0.0 | 0.0 | 0.00 | 0.24 | 0.24 | 95 | 1017.9 |
| 20260506042648 | 32 | 325 | 0.0 | 0.0 | 0.00 | 0.24 | 0.24 | 95 | 1017.9 |
| 20260506042545 | 32 | 325 | 0.0 | 0.0 | 0.00 | 0.24 | 0.24 | 95 | 1017.9 |
| 20260506042443 | 32 | 325 | 0.0 | 0.0 | 0.00 | 0.24 | 0.24 | 95 | 1017.9 |
| 20260506042401 | 32 | 325 | 0.0 | 0.0 | 0.00 | 0.24 | 0.24 | 95 | 1017.9 |
| 20260506042343 | 32 | 325 | 0.0 | 0.0 | 0.00 | 0.24 | 0.24 | 95 | 1017.9 |
| 20260506042244 | 32 | 325 | 0.0 | 0.0 | 0.00 | 0.24 | 0.24 | 95 | 1017.9 |
| 20260506042142 | 32 | 325 | 0.0 | 0.0 | 0.00 | 0.24 | 0.24 | 95 | 1017.9 |
| 20260506042039 | 32 | 325 | 0.0 | 0.0 | 0.00 | 0.24 | 0.24 | 95 | 1017.9 |
| 20260506041937 | 32 | 325 | 0.0 | 0.0 | 0.00 | 0.24 | 0.24 | 95 | 1017.9 |
| 20260506041838 | 32 | 325 | 0.0 | 0.0 | 0.00 | 0.24 | 0.24 | 95 | 1018.0 |
| 20260506041737 | 32 | 325 | 0.0 | 0.0 | 0.00 | 0.24 | 0.24 | 95 | 1018.0 |
| 20260506041635 | 32 | 325 | 0.0 | 0.0 | 0.00 | 0.24 | 0.24 | 95 | 1018.0 |
| 20260506041533 | 32 | 325 | 0.0 | 0.0 | 0.00 | 0.24 | 0.24 | 94 | 1017.9 |
| 20260506041455 | 32 | 325 | 0.0 | 0.0 | 0.00 | 0.24 | 0.24 | 94 | 1018.0 |
| 20260506041331 | 32 | 325 | 0.0 | 0.0 | 0.00 | 0.24 | 0.24 | 94 | 1018.0 |
| 20260506041232 | 32 | 325 | 0.0 | 0.0 | 0.00 | 0.24 | 0.24 | 95 | 1018.0 |
| 20260506041129 | 32 | 325 | 0.0 | 0.0 | 0.00 | 0.24 | 0.24 | 95 | 1018.0 |
| 20260506041034 | 32 | 325 | 0.0 | 0.0 | 0.00 | 0.24 | 0.24 | 95 | 1018.0 |
| 20260506040826 | 32 | 325 | 0.0 | 0.0 | 0.00 | 0.24 | 0.24 | 95 | 1017.9 |
| 20260506040726 | 32 | 325 | 0.0 | 0.0 | 0.00 | 0.24 | 0.24 | 95 | 1017.9 |
| 20260506040629 | 32 | 325 | 0.0 | 0.0 | 0.00 | 0.24 | 0.24 | 95 | 1017.8 |
| 20260506040420 | 32 | 325 | 0.0 | 0.0 | 0.00 | 0.24 | 0.24 | 95 | 1017.7 |
| 20260506040337 | 32 | 325 | 0.0 | 0.0 | 0.00 | 0.24 | 0.24 | 95 | 1017.7 |
| 20260506040320 | 32 | 325 | 0.0 | 0.0 | 0.00 | 0.25 | 0.24 | 95 | 1017.7 |
| 20260506040220 | 32 | 325 | 0.0 | 0.0 | 0.00 | 0.25 | 0.24 | 95 | 1017.7 |
| 20260506040118 | 32 | 325 | 0.0 | 0.0 | 0.00 | 0.25 | 0.24 | 95 | 1017.7 |
| 20260506040015 | 32 | 325 | 0.0 | 0.0 | 0.00 | 0.25 | 0.24 | 94 | 1017.7 |
| 20260506035913 | 32 | 325 | 0.0 | 0.0 | 0.00 | 0.25 | 0.24 | 95 | 1017.7 |
| 20260506035831 | 32 | 325 | 0.0 | 0.0 | 0.00 | 0.25 | 0.24 | 95 | 1017.7 |
| 20260506035813 | 32 | 325 | 0.0 | 0.0 | 0.00 | 0.25 | 0.24 | 94 | 1017.7 |
| 20260506035720 | 32 | 325 | 0.0 | 0.0 | 0.00 | 0.25 | 0.24 | 95 | 1017.5 |
| 20260506035509 | 32 | 325 | 0.0 | 0.0 | 0.00 | 0.25 | 0.24 | 94 | 1017.7 |
| 20260506035405 | 32 | 325 | 0.0 | 0.0 | 0.00 | 0.25 | 0.24 | 94 | 1017.8 |
| 20260506035306 | 32 | 325 | 0.0 | 0.0 | 0.00 | 0.25 | 0.24 | 94 | 1017.9 |
| 20260506035214 | 32 | 325 | 0.0 | 0.0 | 0.00 | 0.25 | 0.24 | 94 | 1017.9 |
| 20260506035004 | 32 | 325 | 0.0 | 0.0 | 0.00 | 0.25 | 0.24 | 94 | 1017.8 |
| 20260506034900 | 32 | 325 | 0.0 | 0.0 | 0.00 | 0.25 | 0.24 | 94 | 1017.8 |
| 20260506034818 | 32 | 325 | 0.0 | 0.0 | 0.00 | 0.25 | 0.24 | 94 | 1017.7 |
| 20260506034758 | 32 | 325 | 0.0 | 0.0 | 0.00 | 0.25 | 0.24 | 94 | 1017.7 |
| 20260506034658 | 32 | 325 | 0.0 | 0.0 | 0.00 | 0.25 | 0.24 | 94 | 1017.5 |
| 20260506034557 | 32 | 325 | 0.0 | 0.0 | 0.00 | 0.25 | 0.24 | 94 | 1017.4 |
| 20260506034457 | 32 | 325 | 0.0 | 0.0 | 0.00 | 0.26 | 0.24 | 94 | 1017.4 |
| 20260506034351 | 32 | 325 | 0.0 | 0.0 | 0.00 | 0.26 | 0.24 | 94 | 1017.5 |
| 20260506034313 | 32 | 325 | 0.0 | 0.0 | 0.00 | 0.26 | 0.24 | 94 | 1017.5 |
| 20260506034251 | 32 | 325 | 0.0 | 0.0 | 0.00 | 0.26 | 0.24 | 94 | 1017.5 |
| 20260506034152 | 32 | 325 | 0.0 | 0.0 | 0.00 | 0.26 | 0.24 | 94 | 1017.5 |
| 20260506034051 | 32 | 325 | 0.0 | 0.0 | 0.00 | 0.26 | 0.24 | 94 | 1017.7 |
| 20260506033951 | 32 | 325 | 0.0 | 0.0 | 0.00 | 0.27 | 0.24 | 94 | 1017.7 |
| 20260506033846 | 32 | 324 | 0.0 | 0.0 | 0.00 | 0.27 | 0.24 | 94 | 1017.8 |
| 20260506033807 | 32 | 325 | 0.0 | 0.0 | 0.00 | 0.27 | 0.24 | 94 | 1017.8 |
| 20260506033747 | 32 | 325 | 0.0 | 0.0 | 0.00 | 0.27 | 0.24 | 94 | 1017.8 |
| 20260506033646 | 32 | 325 | 0.0 | 0.0 | 0.00 | 0.27 | 0.24 | 94 | 1017.8 |
| 20260506033546 | 32 | 325 | 0.0 | 0.0 | 0.00 | 0.27 | 0.24 | 94 | 1017.7 |
| 20260506033445 | 32 | 325 | 0.0 | 0.0 | 0.00 | 0.28 | 0.24 | 94 | 1017.7 |
| 20260506033342 | 32 | 325 | 0.0 | 0.0 | 0.00 | 0.28 | 0.24 | 94 | 1017.7 |
| 20260506033300 | 32 | 324 | 0.0 | 0.0 | 0.00 | 0.28 | 0.24 | 94 | 1017.7 |
| 20260506033239 | 32 | 325 | 0.0 | 0.0 | 0.00 | 0.28 | 0.24 | 94 | 1017.5 |
| 20260506033139 | 32 | 325 | 0.0 | 0.0 | 0.00 | 0.28 | 0.24 | 94 | 1017.5 |
| 20260506033046 | 32 | 324 | 0.0 | 0.0 | 0.00 | 0.28 | 0.24 | 94 | 1017.5 |
| 20260506032841 | 32 | 325 | 0.0 | 0.0 | 0.00 | 0.29 | 0.24 | 94 | 1017.4 |
| 20260506032754 | 32 | 325 | 0.0 | 0.0 | 0.00 | 0.29 | 0.24 | 94 | 1017.4 |
| 20260506032738 | 32 | 324 | 0.0 | 0.0 | 0.00 | 0.29 | 0.24 | 94 | 1017.4 |
| 20260506032637 | 32 | 324 | 0.0 | 0.0 | 0.00 | 0.29 | 0.24 | 94 | 1017.3 |
| 20260506032536 | 32 | 325 | 0.0 | 0.0 | 0.00 | 0.29 | 0.24 | 94 | 1017.4 |
| 20260506032434 | 32 | 325 | 0.0 | 0.0 | 0.00 | 0.30 | 0.24 | 94 | 1017.4 |
| 20260506032357 | 32 | 325 | 0.0 | 0.0 | 0.00 | 0.30 | 0.24 | 94 | 1017.4 |
| 20260506032234 | 32 | 325 | 0.0 | 0.0 | 0.00 | 0.30 | 0.24 | 94 | 1017.4 |
| 20260506032028 | 32 | 325 | 0.0 | 0.0 | 0.00 | 0.31 | 0.24 | 94 | 1017.4 |
| 20260506031927 | 32 | 325 | 0.0 | 0.0 | 0.00 | 0.31 | 0.24 | 94 | 1017.4 |
| 20260506031823 | 32 | 324 | 0.0 | 0.0 | 0.00 | 0.31 | 0.24 | 94 | 1017.4 |
| 20260506031743 | 32 | 325 | 0.0 | 0.0 | 0.00 | 0.31 | 0.24 | 94 | 1017.3 |
| 20260506031723 | 32 | 324 | 0.0 | 0.0 | 0.00 | 0.31 | 0.24 | 94 | 1017.3 |
| 20260506031624 | 32 | 325 | 0.0 | 0.0 | 0.00 | 0.32 | 0.24 | 94 | 1017.3 |
| 20260506031524 | 32 | 325 | 0.0 | 0.0 | 0.00 | 0.32 | 0.24 | 94 | 1017.3 |
| 20260506031421 | 32 | 324 | 0.0 | 0.0 | 0.00 | 0.32 | 0.24 | 94 | 1017.3 |
| 20260506031333 | 32 | 324 | 0.0 | 0.0 | 0.00 | 0.32 | 0.24 | 94 | 1017.3 |
| 20260506031325 | 32 | 325 | 0.0 | 0.0 | 0.00 | 0.32 | 0.24 | 94 | 1017.2 |
| 20260506031120 | 32 | 325 | 0.0 | 0.0 | 0.00 | 0.33 | 0.24 | 94 | 1017.2 |
| 20260506031018 | 32 | 325 | 0.0 | 0.0 | 0.00 | 0.33 | 0.24 | 94 | 1017.2 |
| 20260506030915 | 32 | 325 | 0.0 | 0.0 | 0.00 | 0.33 | 0.24 | 94 | 1017.2 |
| 20260506030814 | 32 | 325 | 0.0 | 0.0 | 0.00 | 0.34 | 0.24 | 94 | 1017.1 |
| 20260506030721 | 32 | 325 | 0.0 | 0.0 | 0.00 | 0.34 | 0.24 | 94 | 1017.1 |
| 20260506030512 | 32 | 324 | 0.0 | 0.0 | 0.00 | 0.34 | 0.24 | 94 | 1017.0 |
| 20260506030426 | 32 | 325 | 0.0 | 0.0 | 0.00 | 0.34 | 0.24 | 94 | 1017.0 |
| 20260506030419 | 32 | 325 | 0.0 | 0.0 | 0.00 | 0.35 | 0.24 | 94 | 1017.1 |
| 20260506030107 | 32 | 324 | 0.0 | 0.0 | 0.00 | 0.35 | 0.24 | 94 | 1017.0 |
| 20260506030006 | 32 | 325 | 0.0 | 0.0 | 0.00 | 0.36 | 0.24 | 94 | 1017.0 |
| 20260506025905 | 32 | 325 | 0.0 | 0.0 | 0.00 | 0.36 | 0.24 | 94 | 1017.0 |
| 20260506025844 | 32 | 324 | 0.0 | 0.0 | 0.00 | 0.36 | 0.24 | 94 | 1017.0 |
| 20260506025701 | 32 | 325 | 0.0 | 0.0 | 0.00 | 0.37 | 0.24 | 94 | 1017.0 |
| 20260506025600 | 32 | 325 | 0.0 | 0.0 | 0.00 | 0.37 | 0.24 | 94 | 1017.1 |
| 20260506025459 | 32 | 324 | 0.0 | 0.0 | 0.00 | 0.37 | 0.24 | 94 | 1017.0 |
| 20260506025357 | 32 | 324 | 0.0 | 0.0 | 0.00 | 0.38 | 0.24 | 94 | 1017.0 |
| 20260506025251 | 32 | 324 | 0.0 | 0.0 | 0.00 | 0.38 | 0.24 | 94 | 1016.8 |
| 20260506025237 | 32 | 325 | 0.0 | 0.0 | 0.00 | 0.38 | 0.24 | 94 | 1016.8 |
| 20260506025153 | 32 | 325 | 0.0 | 0.0 | 0.00 | 0.38 | 0.24 | 94 | 1016.8 |
| 20260506025053 | 32 | 325 | 0.0 | 0.0 | 0.00 | 0.39 | 0.24 | 94 | 1016.8 |
| 20260506024953 | 32 | 324 | 0.0 | 0.0 | 0.00 | 0.39 | 0.24 | 94 | 1016.8 |
| 20260506024856 | 32 | 325 | 0.0 | 0.0 | 0.00 | 0.39 | 0.24 | 94 | 1016.8 |
| 20260506024738 | 32 | 325 | 0.0 | 0.0 | 0.00 | 0.39 | 0.24 | 94 | 1016.7 |
| 20260506024648 | 32 | 325 | 0.0 | 0.0 | 0.00 | 0.39 | 0.24 | 94 | 1016.7 |
| 20260506024547 | 32 | 324 | 0.0 | 0.0 | 0.00 | 0.39 | 0.24 | 94 | 1016.7 |
| 20260506024447 | 32 | 324 | 0.0 | 0.0 | 0.00 | 0.39 | 0.24 | 94 | 1016.6 |
| 20260506024346 | 32 | 325 | 0.0 | 0.0 | 0.00 | 0.39 | 0.24 | 94 | 1016.6 |
| 20260506024235 | 32 | 325 | 0.0 | 0.0 | 0.00 | 0.39 | 0.24 | 94 | 1016.6 |
| 20260506024141 | 32 | 324 | 0.0 | 0.0 | 0.00 | 0.39 | 0.24 | 94 | 1016.6 |
| 20260506024041 | 32 | 325 | 0.0 | 0.0 | 0.00 | 0.40 | 0.24 | 94 | 1016.6 |
| 20260506023941 | 32 | 324 | 0.0 | 0.0 | 0.00 | 0.40 | 0.24 | 94 | 1016.6 |
| 20260506023846 | 32 | 324 | 0.0 | 0.0 | 0.00 | 0.40 | 0.24 | 94 | 1016.6 |
| 20260506023735 | 32 | 325 | 0.0 | 0.0 | 0.00 | 0.40 | 0.24 | 94 | 1016.6 |
| 20260506023634 | 32 | 325 | 0.0 | 0.0 | 0.00 | 0.40 | 0.24 | 94 | 1016.6 |
| 20260506023534 | 32 | 325 | 0.0 | 0.0 | 0.00 | 0.40 | 0.24 | 94 | 1016.6 |
| 20260506023433 | 32 | 324 | 0.0 | 0.0 | 0.00 | 0.40 | 0.24 | 94 | 1016.6 |
| 20260506023333 | 32 | 324 | 0.0 | 0.0 | 0.00 | 0.40 | 0.24 | 94 | 1016.6 |
| 20260506023230 | 32 | 325 | 0.0 | 0.0 | 0.00 | 0.40 | 0.24 | 94 | 1016.6 |
| 20260506023127 | 32 | 325 | 0.0 | 0.0 | 0.00 | 0.40 | 0.24 | 94 | 1016.6 |
| 20260506023028 | 32 | 325 | 0.0 | 0.0 | 0.00 | 0.40 | 0.24 | 94 | 1016.5 |
| 20260506022928 | 32 | 324 | 0.0 | 0.0 | 0.00 | 0.40 | 0.24 | 94 | 1016.5 |
| 20260506022843 | 32 | 324 | 0.0 | 0.0 | 0.00 | 0.40 | 0.24 | 94 | 1016.4 |
| 20260506022836 | 32 | 325 | 0.0 | 0.0 | 0.00 | 0.40 | 0.24 | 94 | 1016.4 |
| 20260506022527 | 32 | 325 | 0.0 | 0.0 | 0.00 | 0.40 | 0.24 | 94 | 1016.4 |
| 20260506022423 | 32 | 325 | 0.0 | 0.0 | 0.00 | 0.40 | 0.24 | 94 | 1016.4 |
| 20260506022321 | 32 | 325 | 0.0 | 0.0 | 0.00 | 0.40 | 0.24 | 94 | 1016.4 |
| 20260506022217 | 32 | 325 | 0.0 | 0.0 | 0.00 | 0.40 | 0.24 | 94 | 1016.4 |
| 20260506022117 | 32 | 325 | 0.0 | 0.0 | 0.00 | 0.40 | 0.24 | 94 | 1016.4 |
| 20260506022017 | 32 | 325 | 0.0 | 0.0 | 0.00 | 0.40 | 0.24 | 94 | 1016.4 |
| 20260506021918 | 32 | 325 | 0.0 | 0.0 | 0.00 | 0.40 | 0.24 | 94 | 1016.4 |
| 20260506021818 | 32 | 325 | 0.0 | 0.0 | 0.00 | 0.40 | 0.24 | 94 | 1016.4 |
| 20260506021724 | 32 | 324 | 0.0 | 0.0 | 0.00 | 0.40 | 0.24 | 94 | 1016.4 |
| 20260506021517 | 32 | 325 | 0.0 | 0.0 | 0.00 | 0.40 | 0.24 | 94 | 1016.4 |
| 20260506021424 | 32 | 325 | 0.0 | 0.0 | 0.00 | 0.40 | 0.24 | 94 | 1016.2 |
| 20260506021229 | 32 | 324 | 0.0 | 0.0 | 0.00 | 0.40 | 0.24 | 94 | 1016.1 |
| 20260506021218 | 32 | 325 | 0.0 | 0.0 | 0.00 | 0.40 | 0.24 | 94 | 1016.1 |
| 20260506021115 | 32 | 324 | 0.0 | 0.0 | 0.00 | 0.40 | 0.24 | 94 | 1016.1 |
| 20260506021027 | 32 | 325 | 0.0 | 0.0 | 0.00 | 0.40 | 0.24 | 94 | 1016.0 |
| 20260506020717 | 32 | 324 | 0.0 | 0.0 | 0.00 | 0.40 | 0.24 | 94 | 1016.0 |
| 20260506020509 | 32 | 325 | 0.0 | 0.0 | 0.00 | 0.40 | 0.24 | 94 | 1016.0 |
| 20260506020416 | 32 | 324 | 0.0 | 0.0 | 0.00 | 0.40 | 0.24 | 94 | 1016.0 |
| 20260506020210 | 32 | 324 | 0.0 | 0.0 | 0.00 | 0.40 | 0.24 | 94 | 1016.1 |
| 20260506020109 | 32 | 324 | 0.0 | 0.0 | 0.00 | 0.40 | 0.24 | 94 | 1016.0 |
| 20260506020003 | 32 | 324 | 0.0 | 0.0 | 0.00 | 0.40 | 0.24 | 94 | 1016.1 |
| 20260506015903 | 32 | 325 | 0.0 | 0.0 | 0.00 | 0.40 | 0.24 | 94 | 1016.0 |
| 20260506015804 | 32 | 325 | 0.0 | 0.0 | 0.00 | 0.40 | 0.24 | 94 | 1016.0 |
| 20260506015727 | 32 | 325 | 0.0 | 0.0 | 0.00 | 0.40 | 0.24 | 94 | 1016.0 |
| 20260506015701 | 32 | 325 | 0.0 | 0.0 | 0.00 | 0.40 | 0.24 | 94 | 1016.0 |
| 20260506015602 | 32 | 325 | 0.0 | 0.0 | 0.00 | 0.40 | 0.24 | 94 | 1016.0 |
| 20260506015458 | 32 | 324 | 0.0 | 0.0 | 0.00 | 0.40 | 0.24 | 94 | 1015.9 |
| 20260506015356 | 32 | 324 | 0.0 | 0.0 | 0.00 | 0.40 | 0.24 | 94 | 1015.9 |
| 20260506015307 | 32 | 324 | 0.0 | 0.0 | 0.00 | 0.40 | 0.24 | 94 | 1015.9 |
| 20260506015300 | 32 | 325 | 0.0 | 0.0 | 0.00 | 0.40 | 0.24 | 94 | 1015.9 |
| 20260506015055 | 32 | 324 | 0.0 | 0.0 | 0.00 | 0.40 | 0.24 | 94 | 1015.9 |
| 20260506014956 | 32 | 325 | 0.0 | 0.0 | 0.00 | 0.40 | 0.24 | 94 | 1015.8 |
| 20260506014727 | 32 | 325 | 0.0 | 0.0 | 0.00 | 0.40 | 0.24 | 94 | 1015.8 |
| 20260506014649 | 32 | 325 | 0.0 | 0.0 | 0.00 | 0.40 | 0.24 | 94 | 1015.8 |
| 20260506014547 | 32 | 324 | 0.0 | 0.0 | 0.00 | 0.40 | 0.24 | 94 | 1015.9 |
| 20260506014441 | 32 | 325 | 0.0 | 0.0 | 0.00 | 0.40 | 0.24 | 94 | 1015.9 |
| 20260506014341 | 32 | 325 | 0.0 | 0.0 | 0.00 | 0.40 | 0.24 | 94 | 1015.8 |
| 20260506014222 | 32 | 324 | 0.0 | 0.0 | 0.00 | 0.40 | 0.24 | 94 | 1015.8 |
| 20260506014149 | 32 | 325 | 0.0 | 0.0 | 0.00 | 0.40 | 0.24 | 94 | 1015.8 |
| 20260506013938 | 32 | 324 | 0.0 | 0.0 | 0.00 | 0.40 | 0.24 | 94 | 1015.8 |
| 20260506013853 | 32 | 325 | 0.0 | 0.0 | 0.00 | 0.40 | 0.24 | 94 | 1015.8 |
| 20260506013847 | 32 | 325 | 0.0 | 0.0 | 0.00 | 0.40 | 0.24 | 94 | 1015.6 |
| 20260506013535 | 32 | 324 | 0.0 | 0.0 | 0.00 | 0.40 | 0.24 | 94 | 1015.6 |
| 20260506013436 | 32 | 324 | 0.0 | 0.0 | 0.00 | 0.40 | 0.24 | 94 | 1015.8 |
| 20260506013334 | 32 | 325 | 0.0 | 0.0 | 0.00 | 0.40 | 0.24 | 94 | 1015.6 |
| 20260506013217 | 32 | 324 | 0.0 | 0.0 | 0.00 | 0.40 | 0.24 | 94 | 1015.8 |
| 20260506013131 | 32 | 324 | 0.0 | 2.0 | 0.00 | 0.40 | 0.24 | 94 | 1015.6 |
| 20260506013029 | 32 | 325 | 1.0 | 8.0 | 0.00 | 0.40 | 0.24 | 94 | 1015.8 |
| 20260506012925 | 32 | 324 | 1.0 | 8.0 | 0.00 | 0.40 | 0.24 | 94 | 1015.8 |
| 20260506012825 | 32 | 324 | 1.0 | 8.0 | 0.00 | 0.40 | 0.24 | 94 | 1015.8 |
| 20260506012736 | 32 | 324 | 2.0 | 8.0 | 0.00 | 0.40 | 0.24 | 94 | 1015.8 |
| 20260506012729 | 32 | 325 | 2.0 | 8.0 | 0.00 | 0.40 | 0.24 | 94 | 1015.8 |
| 20260506012527 | 32 | 324 | 2.0 | 8.0 | 0.00 | 0.40 | 0.24 | 94 | 1015.8 |
| 20260506012320 | 32 | 325 | 3.0 | 8.0 | 0.00 | 0.40 | 0.24 | 94 | 1015.8 |
| 20260506012220 | 32 | 324 | 3.0 | 8.0 | 0.00 | 0.40 | 0.24 | 94 | 1015.9 |
| 20260506012117 | 32 | 324 | 3.0 | 8.0 | 0.00 | 0.40 | 0.24 | 94 | 1015.8 |
| 20260506012018 | 32 | 324 | 3.0 | 8.0 | 0.00 | 0.40 | 0.24 | 94 | 1015.8 |
| 20260506011918 | 32 | 324 | 3.0 | 8.0 | 0.00 | 0.40 | 0.24 | 94 | 1015.6 |
| 20260506011818 | 32 | 324 | 3.0 | 8.0 | 0.00 | 0.40 | 0.24 | 94 | 1015.6 |
| 20260506011717 | 32 | 324 | 3.0 | 8.0 | 0.00 | 0.40 | 0.24 | 94 | 1015.6 |
| 20260506011625 | 32 | 324 | 3.0 | 8.0 | 0.00 | 0.40 | 0.24 | 94 | 1015.6 |
| 20260506011417 | 32 | 324 | 3.0 | 8.0 | 0.00 | 0.40 | 0.24 | 94 | 1015.5 |
| 20260506011317 | 32 | 324 | 4.0 | 8.0 | 0.00 | 0.40 | 0.24 | 94 | 1015.5 |
| 20260506011224 | 32 | 324 | 4.0 | 9.0 | 0.00 | 0.40 | 0.24 | 94 | 1015.5 |
| 20260506011017 | 32 | 324 | 4.0 | 9.0 | 0.00 | 0.40 | 0.24 | 94 | 1015.5 |
| 20260506010917 | 32 | 324 | 4.0 | 9.0 | 0.00 | 0.40 | 0.24 | 94 | 1015.5 |
| 20260506010825 | 32 | 324 | 4.0 | 9.0 | 0.00 | 0.40 | 0.24 | 94 | 1015.5 |
| 20260506010817 | 32 | 323 | 5.0 | 9.0 | 0.00 | 0.40 | 0.24 | 94 | 1015.5 |
| 20260506010611 | 32 | 324 | 5.0 | 9.0 | 0.00 | 0.40 | 0.24 | 94 | 1015.5 |
| 20260506010511 | 32 | 324 | 5.0 | 9.0 | 0.00 | 0.40 | 0.24 | 94 | 1015.5 |
| 20260506010411 | 32 | 324 | 5.0 | 9.0 | 0.00 | 0.40 | 0.24 | 94 | 1015.5 |
| 20260506010312 | 32 | 324 | 5.0 | 9.0 | 0.00 | 0.40 | 0.24 | 94 | 1015.5 |
| 20260506010218 | 32 | 324 | 4.0 | 9.0 | 0.00 | 0.40 | 0.24 | 94 | 1015.4 |
| 20260506010033 | 32 | 323 | 4.0 | 8.0 | 0.00 | 0.40 | 0.24 | 94 | 1015.5 |
| 20260506005811 | 32 | 323 | 4.0 | 9.0 | 0.00 | 0.40 | 0.24 | 94 | 1015.4 |
| 20260506005607 | 32 | 323 | 4.0 | 9.0 | 0.00 | 0.40 | 0.24 | 94 | 1015.4 |
| 20260506005509 | 32 | 323 | 4.0 | 9.0 | 0.00 | 0.40 | 0.24 | 94 | 1015.4 |
| 20260506005408 | 32 | 323 | 4.0 | 9.0 | 0.00 | 0.40 | 0.24 | 94 | 1015.4 |
| 20260506005306 | 32 | 323 | 4.0 | 9.0 | 0.00 | 0.40 | 0.24 | 94 | 1015.3 |
| 20260506005205 | 32 | 323 | 4.0 | 9.0 | 0.00 | 0.40 | 0.24 | 94 | 1015.4 |
| 20260506005106 | 32 | 323 | 4.0 | 9.0 | 0.00 | 0.40 | 0.24 | 94 | 1015.4 |
| 20260506005005 | 32 | 323 | 4.0 | 9.0 | 0.00 | 0.40 | 0.24 | 94 | 1015.4 |
| 20260506004906 | 32 | 323 | 5.0 | 9.0 | 0.00 | 0.40 | 0.24 | 94 | 1015.4 |
| 20260506004806 | 32 | 344 | 5.0 | 9.0 | 0.00 | 0.40 | 0.24 | 94 | 1015.5 |
| 20260506004706 | 32 | 321 | 4.0 | 9.0 | 0.00 | 0.40 | 0.24 | 94 | 1015.4 |
| 20260506004607 | 32 | 297 | 4.0 | 9.0 | 0.00 | 0.40 | 0.24 | 94 | 1015.5 |
| 20260506004359 | 32 | 321 | 4.0 | 9.0 | 0.00 | 0.40 | 0.24 | 94 | 1015.5 |
| 20260506004259 | 32 | 315 | 4.0 | 9.0 | 0.00 | 0.40 | 0.24 | 94 | 1015.5 |
| 20260506004215 | 32 | 323 | 4.0 | 9.0 | 0.00 | 0.40 | 0.24 | 94 | 1015.5 |
| 20260506004159 | 32 | 320 | 4.0 | 11.0 | 0.00 | 0.40 | 0.24 | 94 | 1015.5 |
| 20260506004058 | 32 | 319 | 4.0 | 13.0 | 0.00 | 0.40 | 0.24 | 94 | 1015.4 |
| 20260506004000 | 32 | 321 | 4.0 | 13.0 | 0.00 | 0.40 | 0.24 | 94 | 1015.4 |
| 20260506003920 | 32 | 19 | 4.0 | 13.0 | 0.00 | 0.40 | 0.24 | 94 | 1015.4 |
| 20260506003912 | 32 | 321 | 4.0 | 13.0 | 0.00 | 0.40 | 0.24 | 94 | 1015.4 |
| 20260506003559 | 32 | 319 | 4.0 | 13.0 | 0.00 | 0.40 | 0.24 | 94 | 1015.5 |
| 20260506003459 | 32 | 315 | 4.0 | 13.0 | 0.00 | 0.40 | 0.24 | 94 | 1015.4 |
| 20260506003400 | 32 | 314 | 4.0 | 13.0 | 0.00 | 0.40 | 0.24 | 94 | 1015.4 |
| 20260506003310 | 32 | 350 | 4.0 | 13.0 | 0.00 | 0.40 | 0.24 | 94 | 1015.3 |
| 20260506003303 | 32 | 280 | 4.0 | 13.0 | 0.00 | 0.40 | 0.24 | 94 | 1015.4 |
| 20260506003057 | 32 | 11 | 4.0 | 11.0 | 0.00 | 0.40 | 0.24 | 94 | 1015.4 |
| 20260506002957 | 32 | 330 | 4.0 | 11.0 | 0.00 | 0.40 | 0.24 | 94 | 1015.4 |
| 20260506002857 | 32 | 351 | 5.0 | 12.0 | 0.00 | 0.40 | 0.24 | 94 | 1015.4 |
| 20260506002819 | 32 | 355 | 5.0 | 12.0 | 0.00 | 0.40 | 0.24 | 94 | 1015.4 |
| 20260506002704 | 32 | 337 | 5.0 | 12.0 | 0.00 | 0.40 | 0.24 | 94 | 1015.4 |
| 20260506002458 | 32 | 336 | 5.0 | 12.0 | 0.00 | 0.40 | 0.24 | 94 | 1015.3 |
| 20260506002358 | 32 | 355 | 5.0 | 12.0 | 0.00 | 0.40 | 0.24 | 94 | 1015.3 |
| 20260506002257 | 32 | 313 | 5.0 | 12.0 | 0.00 | 0.40 | 0.24 | 94 | 1015.3 |
| 20260506002211 | 32 | 319 | 5.0 | 12.0 | 0.00 | 0.40 | 0.24 | 94 | 1015.4 |
| 20260506002157 | 32 | 338 | 5.0 | 12.0 | 0.00 | 0.40 | 0.24 | 94 | 1015.4 |
| 20260506002058 | 32 | 321 | 5.0 | 12.0 | 0.00 | 0.40 | 0.24 | 94 | 1015.4 |
| 20260506001958 | 32 | 282 | 5.0 | 12.0 | 0.00 | 0.40 | 0.24 | 94 | 1015.4 |
| 20260506001857 | 32 | 334 | 5.0 | 11.0 | 0.00 | 0.40 | 0.24 | 94 | 1015.4 |
| 20260506001757 | 32 | 316 | 5.0 | 11.0 | 0.00 | 0.40 | 0.24 | 94 | 1015.4 |
| 20260506001710 | 32 | 301 | 5.0 | 11.0 | 0.00 | 0.40 | 0.24 | 94 | 1015.4 |
| 20260506001657 | 32 | 315 | 5.0 | 11.0 | 0.00 | 0.40 | 0.24 | 94 | 1015.4 |
| 20260506001557 | 32 | 338 | 5.0 | 11.0 | 0.00 | 0.40 | 0.24 | 94 | 1015.4 |
| 20260506001459 | 32 | 0 | 4.0 | 11.0 | 0.00 | 0.40 | 0.24 | 94 | 1015.4 |
| 20260506001403 | 32 | 348 | 4.0 | 10.0 | 0.00 | 0.40 | 0.24 | 94 | 1015.3 |
| 20260506001211 | 32 | 344 | 5.0 | 10.0 | 0.00 | 0.40 | 0.24 | 94 | 1015.3 |
| 20260506001158 | 32 | 278 | 5.0 | 10.0 | 0.00 | 0.40 | 0.24 | 94 | 1015.3 |
| 20260506001057 | 32 | 325 | 4.0 | 10.0 | 0.00 | 0.40 | 0.24 | 94 | 1015.3 |
| 20260506000957 | 32 | 331 | 4.0 | 10.0 | 0.00 | 0.40 | 0.24 | 94 | 1015.2 |
| 20260506000854 | 32 | 331 | 4.0 | 10.0 | 0.00 | 0.40 | 0.24 | 94 | 1015.2 |
| 20260506000754 | 32 | 320 | 4.0 | 10.0 | 0.00 | 0.40 | 0.24 | 94 | 1015.2 |
| 20260506000710 | 32 | 320 | 4.0 | 10.0 | 0.00 | 0.40 | 0.24 | 94 | 1015.2 |
| 20260506000654 | 32 | 0 | 4.0 | 10.0 | 0.00 | 0.40 | 0.24 | 94 | 1015.3 |
| 20260506000553 | 32 | 336 | 4.0 | 10.0 | 0.00 | 0.40 | 0.24 | 94 | 1015.2 |
| 20260506000453 | 32 | 5 | 4.0 | 10.0 | 0.00 | 0.40 | 0.24 | 94 | 1015.2 |
| 20260506000401 | 32 | 9 | 4.0 | 10.0 | 0.00 | 0.40 | 0.24 | 94 | 1015.2 |
| 20260506000212 | 32 | 0 | 4.0 | 10.0 | 0.00 | 0.40 | 0.24 | 94 | 1015.2 |
| 20260506000200 | 32 | 338 | 4.0 | 10.0 | 0.00 | 0.40 | 0.24 | 94 | 1015.2 |
| 20260506000000 | 32 | 0 | 4.0 | 10.0 | 0.00 | 0.40 | 0.24 | 94 | 1015.3 |
| 20260505235753 | 32 | 304 | 5.0 | 10.0 | 0.00 | 0.40 | 0.24 | 94 | 1015.2 |
| 20260505235712 | 32 | 313 | 5.0 | 10.0 | 0.00 | 0.40 | 0.24 | 94 | 1015.2 |
| 20260505235708 | 32 | 5 | 5.0 | 10.0 | 0.00 | 0.40 | 0.24 | 94 | 1015.2 |
| 20260505235353 | 32 | 338 | 5.0 | 11.0 | 0.00 | 0.40 | 0.24 | 94 | 1015.1 |
| 20260505235253 | 32 | 355 | 5.0 | 11.0 | 0.00 | 0.40 | 0.24 | 94 | 1015.1 |
| 20260505235211 | 32 | 5 | 5.0 | 11.0 | 0.00 | 0.40 | 0.24 | 94 | 1015.1 |
| 20260505235154 | 32 | 277 | 5.0 | 11.0 | 0.00 | 0.40 | 0.24 | 94 | 1015.1 |
| 20260505235053 | 32 | 310 | 5.0 | 11.0 | 0.00 | 0.40 | 0.24 | 94 | 1015.1 |
| 20260505234949 | 32 | 0 | 5.0 | 11.0 | 0.00 | 0.40 | 0.24 | 94 | 1015.1 |
| 20260505234849 | 32 | 330 | 5.0 | 11.0 | 0.00 | 0.40 | 0.24 | 94 | 1015.1 |
| 20260505234750 | 32 | 350 | 5.0 | 11.0 | 0.00 | 0.40 | 0.24 | 94 | 1015.1 |
| 20260505234712 | 32 | 325 | 5.0 | 11.0 | 0.00 | 0.40 | 0.24 | 94 | 1015.1 |
| 20260505234650 | 32 | 317 | 5.0 | 11.0 | 0.00 | 0.40 | 0.24 | 94 | 1015.1 |
| 20260505234549 | 32 | 350 | 5.0 | 10.0 | 0.00 | 0.40 | 0.24 | 94 | 1015.1 |
| 20260505234457 | 32 | 5 | 5.0 | 10.0 | 0.00 | 0.40 | 0.24 | 94 | 1015.1 |
| 20260505234251 | 32 | 336 | 5.0 | 10.0 | 0.00 | 0.40 | 0.24 | 94 | 1014.9 |
| 20260505234211 | 32 | 327 | 5.0 | 10.0 | 0.00 | 0.40 | 0.24 | 94 | 1014.9 |
| 20260505234148 | 32 | 355 | 5.0 | 10.0 | 0.00 | 0.40 | 0.24 | 94 | 1015.1 |
| 20260505234050 | 32 | 313 | 5.0 | 10.0 | 0.00 | 0.40 | 0.24 | 93 | 1015.1 |
| 20260505233951 | 32 | 341 | 5.0 | 10.0 | 0.00 | 0.40 | 0.24 | 94 | 1014.9 |
| 20260505233849 | 32 | 309 | 5.0 | 10.0 | 0.00 | 0.40 | 0.24 | 94 | 1015.1 |
| 20260505233749 | 32 | 355 | 4.0 | 10.0 | 0.00 | 0.40 | 0.24 | 93 | 1014.9 |
| 20260505233707 | 32 | 343 | 4.0 | 9.0 | 0.00 | 0.40 | 0.24 | 94 | 1014.9 |
| 20260505233651 | 32 | 321 | 5.0 | 9.0 | 0.00 | 0.40 | 0.24 | 93 | 1014.9 |
| 20260505233557 | 32 | 347 | 5.0 | 9.0 | 0.00 | 0.40 | 0.24 | 93 | 1015.1 |
| 20260505233351 | 32 | 10 | 5.0 | 9.0 | 0.00 | 0.40 | 0.24 | 93 | 1014.9 |
| 20260505233249 | 32 | 336 | 5.0 | 13.0 | 0.00 | 0.40 | 0.24 | 93 | 1014.9 |
| 20260505233207 | 32 | 305 | 5.0 | 13.0 | 0.00 | 0.40 | 0.24 | 93 | 1014.9 |
| 20260505233150 | 32 | 297 | 5.0 | 13.0 | 0.00 | 0.40 | 0.24 | 93 | 1014.9 |
| 20260505233052 | 32 | 348 | 5.0 | 13.0 | 0.00 | 0.40 | 0.24 | 93 | 1014.9 |
| 20260505232852 | 32 | 284 | 5.0 | 13.0 | 0.00 | 0.40 | 0.24 | 93 | 1014.9 |
| 20260505232706 | 32 | 0 | 5.0 | 13.0 | 0.00 | 0.40 | 0.24 | 93 | 1014.9 |
| 20260505232646 | 32 | 317 | 5.0 | 13.0 | 0.00 | 0.40 | 0.24 | 93 | 1015.1 |
| 20260505232545 | 32 | 297 | 5.0 | 13.0 | 0.00 | 0.40 | 0.24 | 93 | 1014.9 |
| 20260505232446 | 32 | 280 | 5.0 | 13.0 | 0.00 | 0.40 | 0.24 | 93 | 1014.9 |
| 20260505232345 | 32 | 23 | 5.0 | 13.0 | 0.00 | 0.40 | 0.24 | 93 | 1014.9 |
| 20260505232245 | 32 | 355 | 5.0 | 13.0 | 0.00 | 0.40 | 0.24 | 93 | 1014.9 |
| 20260505232206 | 32 | 323 | 5.0 | 13.0 | 0.00 | 0.40 | 0.24 | 93 | 1014.9 |
| 20260505232145 | 32 | 324 | 6.0 | 13.0 | 0.00 | 0.40 | 0.24 | 93 | 1014.8 |
| 20260505232045 | 32 | 319 | 5.0 | 13.0 | 0.00 | 0.40 | 0.24 | 93 | 1014.9 |
| 20260505231952 | 32 | 294 | 6.0 | 13.0 | 0.00 | 0.40 | 0.24 | 93 | 1014.8 |
| 20260505231745 | 32 | 17 | 6.0 | 14.0 | 0.00 | 0.40 | 0.24 | 93 | 1014.7 |
| 20260505231707 | 32 | 336 | 6.0 | 14.0 | 0.00 | 0.40 | 0.24 | 93 | 1014.7 |
| 20260505231645 | 32 | 344 | 6.0 | 14.0 | 0.00 | 0.40 | 0.24 | 93 | 1014.7 |
| 20260505231553 | 32 | 355 | 7.0 | 14.0 | 0.00 | 0.40 | 0.24 | 93 | 1014.7 |
| 20260505231346 | 32 | 332 | 6.0 | 14.0 | 0.00 | 0.40 | 0.24 | 93 | 1014.7 |
| 20260505231246 | 32 | 24 | 6.0 | 14.0 | 0.00 | 0.40 | 0.24 | 93 | 1014.6 |
| 20260505231207 | 32 | 315 | 6.0 | 14.0 | 0.00 | 0.40 | 0.24 | 93 | 1014.6 |
| 20260505231142 | 32 | 5 | 6.0 | 14.0 | 0.00 | 0.40 | 0.24 | 93 | 1014.6 |
| 20260505231042 | 32 | 355 | 7.0 | 14.0 | 0.00 | 0.40 | 0.24 | 93 | 1014.7 |
| 20260505230942 | 32 | 317 | 7.0 | 14.0 | 0.00 | 0.40 | 0.24 | 93 | 1014.6 |
| 20260505230841 | 32 | 323 | 7.0 | 14.0 | 0.00 | 0.40 | 0.24 | 93 | 1014.6 |
| 20260505230742 | 32 | 0 | 7.0 | 13.0 | 0.00 | 0.40 | 0.24 | 93 | 1014.6 |
| 20260505230708 | 32 | 355 | 7.0 | 13.0 | 0.00 | 0.40 | 0.24 | 93 | 1014.6 |
| 20260505230648 | 32 | 0 | 7.0 | 13.0 | 0.00 | 0.40 | 0.24 | 93 | 1014.7 |
| 20260505230441 | 32 | 295 | 7.0 | 15.0 | 0.00 | 0.40 | 0.24 | 93 | 1014.8 |
| 20260505230359 | 32 | 355 | 7.0 | 15.0 | 0.01 | 0.40 | 0.24 | 93 | 1014.8 |
| 20260505230245 | 32 | 331 | 8.0 | 15.0 | 0.01 | 0.40 | 0.24 | 93 | 1014.9 |
| 20260505230042 | 32 | 355 | 8.0 | 15.0 | 0.01 | 0.40 | 0.24 | 93 | 1014.9 |
| 20260505225941 | 32 | 5 | 7.0 | 15.0 | 0.01 | 0.40 | 0.24 | 93 | 1014.8 |
| 20260505225841 | 32 | 311 | 8.0 | 15.0 | 0.01 | 0.40 | 0.24 | 93 | 1014.8 |
| 20260505225754 | 32 | 0 | 8.0 | 15.0 | 0.01 | 0.40 | 0.24 | 93 | 1014.8 |
| 20260505225747 | 32 | 323 | 8.0 | 15.0 | 0.01 | 0.40 | 0.24 | 93 | 1014.8 |
| 20260505225549 | 32 | 315 | 7.0 | 15.0 | 0.01 | 0.40 | 0.24 | 93 | 1014.8 |
| 20260505225342 | 32 | 25 | 8.0 | 15.0 | 0.01 | 0.40 | 0.24 | 93 | 1014.8 |
| 20260505225247 | 33 | 348 | 8.0 | 17.0 | 0.01 | 0.40 | 0.24 | 93 | 1014.9 |
| 20260505225241 | 32 | 355 | 8.0 | 17.0 | 0.01 | 0.40 | 0.24 | 93 | 1014.9 |
| 20260505225038 | 32 | 329 | 9.0 | 17.0 | 0.01 | 0.40 | 0.24 | 93 | 1015.1 |
| 20260505224937 | 33 | 300 | 9.0 | 18.0 | 0.01 | 0.40 | 0.24 | 92 | 1015.1 |
| 20260505224837 | 33 | 335 | 9.0 | 18.0 | 0.01 | 0.40 | 0.24 | 92 | 1015.1 |
| 20260505224737 | 33 | 325 | 9.0 | 18.0 | 0.01 | 0.40 | 0.24 | 92 | 1015.2 |
| 20260505224707 | 33 | 322 | 9.0 | 18.0 | 0.01 | 0.40 | 0.24 | 92 | 1015.2 |
| 20260505224637 | 33 | 319 | 9.0 | 18.0 | 0.01 | 0.40 | 0.24 | 92 | 1015.2 |
| 20260505224538 | 33 | 298 | 9.0 | 18.0 | 0.01 | 0.40 | 0.24 | 92 | 1015.2 |
| 20260505224444 | 33 | 342 | 9.0 | 18.0 | 0.01 | 0.40 | 0.24 | 92 | 1015.2 |
| 20260505224249 | 33 | 289 | 8.0 | 18.0 | 0.01 | 0.40 | 0.24 | 92 | 1015.2 |
| 20260505224241 | 33 | 311 | 8.0 | 18.0 | 0.01 | 0.40 | 0.24 | 92 | 1015.2 |
| 20260505224037 | 33 | 323 | 7.0 | 18.0 | 0.01 | 0.40 | 0.24 | 92 | 1015.1 |
| 20260505223944 | 33 | 308 | 7.0 | 15.0 | 0.01 | 0.40 | 0.24 | 92 | 1014.8 |
| 20260505223814 | 33 | 350 | 7.0 | 17.0 | 0.01 | 0.40 | 0.24 | 92 | 1014.7 |
| 20260505223637 | 33 | 331 | 8.0 | 18.0 | 0.01 | 0.40 | 0.24 | 92 | 1014.7 |
| 20260505223538 | 33 | 281 | 8.0 | 18.0 | 0.01 | 0.40 | 0.24 | 92 | 1014.7 |
| 20260505223437 | 33 | 5 | 8.0 | 18.0 | 0.01 | 0.40 | 0.24 | 92 | 1014.7 |
| 20260505223333 | 34 | 338 | 8.0 | 18.0 | 0.01 | 0.40 | 0.24 | 92 | 1014.7 |
| 20260505223251 | 34 | 296 | 8.0 | 18.0 | 0.01 | 0.40 | 0.24 | 92 | 1014.7 |
| 20260505223244 | 34 | 327 | 8.0 | 18.0 | 0.01 | 0.40 | 0.24 | 92 | 1014.7 |
| 20260505222934 | 34 | 355 | 9.0 | 18.0 | 0.02 | 0.40 | 0.24 | 92 | 1014.3 |
| 20260505222833 | 34 | 355 | 9.0 | 18.0 | 0.02 | 0.40 | 0.24 | 92 | 1014.3 |
| 20260505222733 | 34 | 313 | 9.0 | 18.0 | 0.02 | 0.40 | 0.24 | 92 | 1014.3 |
| 20260505222706 | 34 | 327 | 9.0 | 18.0 | 0.02 | 0.40 | 0.24 | 92 | 1014.3 |
| 20260505222634 | 34 | 340 | 9.0 | 17.0 | 0.02 | 0.40 | 0.24 | 93 | 1014.2 |
| 20260505222533 | 34 | 338 | 9.0 | 14.0 | 0.02 | 0.40 | 0.24 | 92 | 1014.2 |
| 20260505222440 | 34 | 321 | 9.0 | 14.0 | 0.03 | 0.40 | 0.24 | 92 | 1014.3 |
| 20260505222313 | 34 | 315 | 9.0 | 14.0 | 0.03 | 0.40 | 0.24 | 92 | 1014.2 |
| 20260505222132 | 34 | 348 | 9.0 | 16.0 | 0.03 | 0.40 | 0.24 | 92 | 1014.1 |
| 20260505222033 | 34 | 38 | 9.0 | 16.0 | 0.03 | 0.40 | 0.24 | 92 | 1014.1 |
| 20260505221933 | 34 | 336 | 9.0 | 16.0 | 0.03 | 0.40 | 0.24 | 92 | 1014.0 |
| 20260505221833 | 34 | 17 | 9.0 | 16.0 | 0.04 | 0.40 | 0.24 | 92 | 1014.0 |
| 20260505221734 | 34 | 324 | 9.0 | 16.0 | 0.04 | 0.40 | 0.24 | 92 | 1014.0 |
| 20260505221706 | 34 | 283 | 9.0 | 16.0 | 0.04 | 0.40 | 0.24 | 92 | 1014.0 |
| 20260505221640 | 34 | 5 | 9.0 | 16.0 | 0.04 | 0.40 | 0.24 | 92 | 1014.0 |
| 20260505221430 | 34 | 315 | 9.0 | 16.0 | 0.04 | 0.40 | 0.24 | 92 | 1014.1 |
| 20260505221329 | 34 | 28 | 9.0 | 16.0 | 0.04 | 0.40 | 0.24 | 92 | 1014.2 |
| 20260505221241 | 34 | 355 | 9.0 | 16.0 | 0.04 | 0.40 | 0.24 | 92 | 1014.2 |
| 20260505221234 | 34 | 291 | 9.0 | 16.0 | 0.04 | 0.40 | 0.24 | 92 | 1014.2 |
| 20260505221044 | 34 | 0 | 8.0 | 15.0 | 0.04 | 0.40 | 0.24 | 92 | 1014.3 |
| 20260505220740 | 34 | 5 | 7.0 | 15.0 | 0.04 | 0.40 | 0.24 | 92 | 1014.3 |
| 20260505220733 | 34 | 345 | 7.0 | 14.0 | 0.04 | 0.40 | 0.24 | 92 | 1014.3 |
| 20260505220529 | 35 | 324 | 7.0 | 14.0 | 0.04 | 0.40 | 0.24 | 92 | 1014.5 |
| 20260505220429 | 35 | 349 | 7.0 | 14.0 | 0.04 | 0.40 | 0.24 | 92 | 1014.3 |
| 20260505220330 | 35 | 348 | 7.0 | 13.0 | 0.03 | 0.39 | 0.23 | 92 | 1014.5 |
| 20260505220204 | 35 | 334 | 7.0 | 15.0 | 0.03 | 0.39 | 0.23 | 92 | 1014.3 |
| 20260505220123 | 35 | 304 | 8.0 | 15.0 | 0.03 | 0.39 | 0.23 | 92 | 1014.3 |
| 20260505220023 | 35 | 346 | 8.0 | 15.0 | 0.03 | 0.39 | 0.23 | 92 | 1014.5 |
| 20260505215923 | 35 | 342 | 8.0 | 15.0 | 0.03 | 0.39 | 0.23 | 92 | 1014.5 |
| 20260505215821 | 35 | 349 | 8.0 | 15.0 | 0.03 | 0.39 | 0.23 | 92 | 1014.5 |
| 20260505215715 | 35 | 330 | 8.0 | 15.0 | 0.03 | 0.39 | 0.23 | 92 | 1014.5 |
| 20260505215704 | 35 | 0 | 8.0 | 15.0 | 0.03 | 0.39 | 0.23 | 92 | 1014.5 |
| 20260505215615 | 35 | 42 | 8.0 | 15.0 | 0.03 | 0.39 | 0.23 | 91 | 1014.3 |
| 20260505215515 | 35 | 0 | 8.0 | 15.0 | 0.03 | 0.39 | 0.23 | 92 | 1014.3 |
| 20260505215416 | 35 | 0 | 8.0 | 15.0 | 0.03 | 0.39 | 0.23 | 91 | 1014.2 |
| 20260505215318 | 35 | 342 | 8.0 | 15.0 | 0.03 | 0.39 | 0.23 | 91 | 1014.2 |
| 20260505215311 | 35 | 319 | 7.0 | 15.0 | 0.03 | 0.39 | 0.23 | 91 | 1014.1 |